Wetterdaten: aktuell Mittwoch, 22.05.2019 16:48
Datum Zeit Temp. A. Boden +5cm Boden -5cm Boden -10cm Boden -20cm Feuchte A. Blattfeuchte Bodenf. -5cm Bodenf.-10cm Bodenf.-20cm Bodenf.-50cm Luftdruck Regen Wind Richtung Richtung Sonnenschein ET UV Solar Taupunkt Windchill Windben
22.05.2019 16:48 15,2 C 18,3 C 17,8 C 16,1 C 13,3 C 66 % 0 lf 91 cb 47 cb 43 cb 10 cb 1020,3 hPa 0,0 l/m 5,5 km/h (1 Bft) N-NW 330 0 min 0,000 mm 1,2 UV-I 202 W/m 8,9 C 15,2 C 11,3 km/h (2 Bft)
22.05.2019 16:46 15,2 C 18,3 C 17,8 C 16,1 C 13,3 C 65 % 0 lf 91 cb 47 cb 43 cb 10 cb 1020,4 hPa 0,0 l/m 7,1 km/h (2 Bft) NW 319 0 min 0,000 mm 1,3 UV-I 218 W/m 8,7 C 14,8 C 16,1 km/h (3 Bft)
22.05.2019 16:44 15,2 C 18,9 C 17,8 C 16,1 C 13,3 C 66 % 0 lf 92 cb 47 cb 43 cb 10 cb 1020,4 hPa 0,0 l/m 6,9 km/h (2 Bft) NW 322 0 min 0,000 mm 1,3 UV-I 223 W/m 8,9 C 14,9 C 11,3 km/h (2 Bft)
22.05.2019 16:42 15,1 C 18,9 C 17,8 C 16,1 C 13,3 C 67 % 0 lf 92 cb 47 cb 43 cb 10 cb 1020,4 hPa 0,0 l/m 10,7 km/h (2 Bft) W-NW 303 0 min 0,000 mm 1,4 UV-I 241 W/m 9,0 C 12,9 C 16,1 km/h (3 Bft)
22.05.2019 16:40 15,0 C 18,3 C 17,8 C 16,1 C 13,3 C 67 % 0 lf 91 cb 47 cb 43 cb 10 cb 1020,3 hPa 0,0 l/m 7,7 km/h (2 Bft) N-NW 333 2 min 0,000 mm 1,5 UV-I 378 W/m 8,9 C 14,3 C 11,3 km/h (2 Bft)
22.05.2019 16:38 15,0 C 18,3 C 17,8 C 16,1 C 13,3 C 67 % 0 lf 91 cb 47 cb 43 cb 10 cb 1020,4 hPa 0,0 l/m 5,4 km/h (1 Bft) NW 323 0 min 0,000 mm 1,3 UV-I 221 W/m 8,9 C 15,0 C 12,9 km/h (3 Bft)
22.05.2019 16:36 15,0 C 18,3 C 17,8 C 16,1 C 13,3 C 68 % 0 lf 91 cb 47 cb 44 cb 10 cb 1020,4 hPa 0,0 l/m 3,7 km/h (1 Bft) NW 316 0 min 0,000 mm 2,2 UV-I 216 W/m 9,1 C 15,0 C 9,7 km/h (2 Bft)
22.05.2019 16:34 15,0 C 16,7 C 17,8 C 16,1 C 13,3 C 67 % 0 lf 89 cb 47 cb 44 cb 10 cb 1020,4 hPa 0,0 l/m 4,6 km/h (1 Bft) NW 314 0 min 0,000 mm 1,9 UV-I 179 W/m 8,9 C 15,0 C 16,1 km/h (3 Bft)
22.05.2019 16:32 15,0 C 16,7 C 17,8 C 16,1 C 13,3 C 67 % 0 lf 88 cb 47 cb 44 cb 10 cb 1020,4 hPa 0,0 l/m 8,1 km/h (2 Bft) NW 317 0 min 0,000 mm 0,9 UV-I 178 W/m 8,9 C 14,0 C 14,5 km/h (3 Bft)
22.05.2019 16:30 15,0 C 16,7 C 18,3 C 16,1 C 13,3 C 68 % 0 lf 88 cb 48 cb 44 cb 10 cb 1020,4 hPa 0,0 l/m 5,7 km/h (1 Bft) NW 313 0 min 0,000 mm 0,7 UV-I 134 W/m 9,1 C 15,0 C 14,5 km/h (3 Bft)
22.05.2019 16:28 15,1 C 16,7 C 18,3 C 16,1 C 13,3 C 67 % 0 lf 88 cb 48 cb 44 cb 10 cb 1020,4 hPa 0,0 l/m 1,2 km/h (1 Bft) N-NW 327 0 min 0,000 mm 0,8 UV-I 123 W/m 9,0 C 15,1 C 8,0 km/h (2 Bft)
22.05.2019 16:26 15,2 C 17,2 C 18,3 C 16,1 C 13,3 C 67 % 0 lf 89 cb 48 cb 44 cb 10 cb 1020,4 hPa 0,0 l/m 2,1 km/h (1 Bft) N-NW 327 0 min 0,000 mm 0,9 UV-I 127 W/m 9,1 C 15,2 C 4,8 km/h (1 Bft)
22.05.2019 16:24 15,3 C 17,2 C 18,3 C 16,1 C 13,3 C 66 % 0 lf 88 cb 48 cb 44 cb 10 cb 1020,3 hPa 0,0 l/m 5,1 km/h (1 Bft) N-NW 327 0 min 0,000 mm 1,1 UV-I 123 W/m 9,0 C 15,3 C 8,0 km/h (2 Bft)
22.05.2019 16:22 15,3 C 17,2 C 18,3 C 16,1 C 13,3 C 66 % 0 lf 88 cb 48 cb 44 cb 10 cb 1020,3 hPa 0,0 l/m 6,8 km/h (2 Bft) N-NW 327 0 min 0,000 mm 1,1 UV-I 118 W/m 9,0 C 15,1 C 11,3 km/h (2 Bft)
22.05.2019 16:20 15,4 C 17,8 C 18,3 C 16,1 C 13,3 C 66 % 0 lf 89 cb 47 cb 44 cb 10 cb 1020,3 hPa 0,0 l/m 2,2 km/h (1 Bft) NW 319 0 min 0,000 mm 1,2 UV-I 121 W/m 9,1 C 15,4 C 14,5 km/h (3 Bft)
22.05.2019 16:18 15,6 C 18,3 C 18,9 C 16,1 C 13,3 C 64 % 0 lf 89 cb 48 cb 44 cb 10 cb 1020,3 hPa 0,0 l/m 0,7 km/h (0 Bft) N-NW 347 0 min 0,000 mm 1,3 UV-I 155 W/m 8,8 C 15,6 C 6,4 km/h (2 Bft)
22.05.2019 16:16 15,7 C 18,9 C 18,9 C 16,1 C 13,3 C 66 % 0 lf 90 cb 48 cb 44 cb 10 cb 1020,3 hPa 0,0 l/m 2,6 km/h (1 Bft) N-NW 345 0 min 0,000 mm 1,3 UV-I 183 W/m 9,4 C 15,7 C 9,7 km/h (2 Bft)
22.05.2019 16:14 15,8 C 19,4 C 18,9 C 16,1 C 13,3 C 65 % 0 lf 90 cb 48 cb 44 cb 10 cb 1020,3 hPa 0,0 l/m 6,7 km/h (2 Bft) N-NW 346 0 min 0,000 mm 1,4 UV-I 185 W/m 9,2 C 15,6 C 11,3 km/h (2 Bft)
22.05.2019 16:12 15,9 C 20,0 C 18,9 C 16,1 C 13,3 C 66 % 0 lf 91 cb 48 cb 44 cb 10 cb 1020,3 hPa 0,0 l/m 3,6 km/h (1 Bft) N-NW 343 0 min 0,000 mm 1,4 UV-I 195 W/m 9,6 C 15,9 C 16,1 km/h (3 Bft)
22.05.2019 16:10 16,0 C 20,6 C 18,9 C 16,1 C 13,3 C 66 % 0 lf 91 cb 48 cb 44 cb 10 cb 1020,3 hPa 0,0 l/m 3,1 km/h (1 Bft) N-NW 330 0 min 0,000 mm 1,2 UV-I 188 W/m 9,7 C 16,0 C 9,7 km/h (2 Bft)
22.05.2019 16:08 16,1 C 21,1 C 19,4 C 16,1 C 13,3 C 66 % 0 lf 91 cb 48 cb 44 cb 10 cb 1020,4 hPa 0,0 l/m 7,8 km/h (2 Bft) N-NW 336 0 min 0,000 mm 0,9 UV-I 178 W/m 9,7 C 15,4 C 12,9 km/h (3 Bft)
22.05.2019 16:07 16,2 C 21,7 C 19,4 C 16,1 C 13,3 C 65 % 0 lf 93 cb 48 cb 44 cb 10 cb 1020,3 hPa 0,0 l/m 4,1 km/h (1 Bft) N-NW 336 0 min 0,000 mm 0,9 UV-I 155 W/m 9,6 C 16,2 C 9,7 km/h (2 Bft)
22.05.2019 16:06 16,2 C 21,7 C 19,4 C 16,7 C 13,3 C 64 % 0 lf 93 cb 48 cb 44 cb 10 cb 1020,3 hPa 0,0 l/m 5,1 km/h (1 Bft) N-NW 339 0 min 0,000 mm 1,1 UV-I 163 W/m 9,4 C 16,2 C 11,3 km/h (2 Bft)
22.05.2019 16:05 16,2 C 22,2 C 19,4 C 16,7 C 13,3 C 65 % 0 lf 93 cb 48 cb 44 cb 10 cb 1020,3 hPa 0,0 l/m 0,1 km/h (0 Bft) N-NW 327 0 min 0,000 mm 1,2 UV-I 185 W/m 9,6 C 16,2 C 1,6 km/h (1 Bft)
22.05.2019 16:04 16,3 C 22,8 C 19,4 C 16,7 C 13,3 C 62 % 0 lf 93 cb 48 cb 44 cb 10 cb 1020,3 hPa 0,0 l/m 1,4 km/h (1 Bft) NW 324 0 min 0,000 mm 1,4 UV-I 218 W/m 9,0 C 16,3 C 6,4 km/h (2 Bft)
22.05.2019 16:02 16,4 C 24,4 C 19,4 C 16,7 C 13,3 C 62 % 0 lf 96 cb 48 cb 44 cb 10 cb 1020,3 hPa 0,0 l/m 10,6 km/h (2 Bft) N-NW 327 0 min 0,000 mm 3,0 UV-I 214 W/m 9,1 C 14,4 C 22,5 km/h (4 Bft)
22.05.2019 16:00 16,4 C 25,6 C 19,4 C 16,7 C 13,3 C 62 % 0 lf 97 cb 48 cb 44 cb 10 cb 1020,4 hPa 0,0 l/m 3,5 km/h (1 Bft) NW 304 0 min 0,330 mm 1,5 UV-I 214 W/m 9,1 C 16,4 C 14,5 km/h (3 Bft)
22.05.2019 15:58 16,4 C 27,2 C 20,0 C 16,7 C 13,3 C 62 % 0 lf 99 cb 49 cb 44 cb 10 cb 1020,3 hPa 0,0 l/m 0,5 km/h (0 Bft) NW 304 0 min 0,000 mm 1,4 UV-I 211 W/m 9,1 C 16,4 C 4,8 km/h (1 Bft)
22.05.2019 15:56 16,3 C 28,9 C 20,0 C 16,7 C 13,3 C 65 % 0 lf 101 cb 49 cb 44 cb 10 cb 1020,3 hPa 0,0 l/m 6,3 km/h (2 Bft) NW 304 2 min 0,000 mm 3,4 UV-I 724 W/m 9,7 C 16,3 C 14,5 km/h (3 Bft)
22.05.2019 15:54 16,0 C 28,9 C 20,0 C 16,7 C 13,3 C 66 % 0 lf 101 cb 49 cb 44 cb 10 cb 1020,3 hPa 0,0 l/m 3,1 km/h (1 Bft) NW 308 1 min 0,000 mm 3,7 UV-I 838 W/m 9,7 C 16,0 C 8,0 km/h (2 Bft)
22.05.2019 15:53 15,8 C 27,8 C 20,0 C 16,7 C 13,3 C 65 % 0 lf 98 cb 48 cb 44 cb 10 cb 1020,2 hPa 0,0 l/m 0,0 km/h (0 Bft) NW 308 1 min 0,000 mm 3,9 UV-I 847 W/m 9,2 C 15,8 C 0,0 km/h (0 Bft)
22.05.2019 15:52 15,7 C 27,2 C 20,0 C 16,7 C 13,3 C 65 % 0 lf 97 cb 49 cb 44 cb 10 cb 1020,2 hPa 0,0 l/m 0,4 km/h (0 Bft) NW 308 2 min 0,000 mm 3,8 UV-I 844 W/m 9,1 C 15,7 C 6,4 km/h (2 Bft)
22.05.2019 15:50 15,6 C 25,6 C 20,0 C 16,7 C 13,3 C 64 % 0 lf 95 cb 49 cb 44 cb 10 cb 1020,3 hPa 0,0 l/m 0,0 km/h (0 Bft) NW 307 2 min 0,000 mm 3,8 UV-I 833 W/m 8,8 C 15,6 C 0,0 km/h (0 Bft)
22.05.2019 15:48 15,4 C 23,9 C 20,0 C 16,7 C 12,8 C 63 % 0 lf 93 cb 49 cb 44 cb 10 cb 1020,3 hPa 0,0 l/m 0,0 km/h (0 Bft) NW 307 2 min 0,000 mm 3,9 UV-I 768 W/m 8,4 C 15,4 C 0,0 km/h (0 Bft)
22.05.2019 15:46 15,4 C 21,7 C 20,0 C 16,7 C 12,8 C 63 % 0 lf 90 cb 49 cb 44 cb 10 cb 1020,3 hPa 0,2 l/m 2,8 km/h (1 Bft) NW 307 2 min 0,000 mm 3,8 UV-I 800 W/m 8,4 C 15,4 C 6,4 km/h (2 Bft)
22.05.2019 15:44 15,4 C 20,6 C 20,0 C 16,7 C 12,8 C 63 % 0 lf 89 cb 49 cb 44 cb 10 cb 1020,3 hPa 0,0 l/m 3,4 km/h (1 Bft) NW 307 0 min 0,000 mm 1,6 UV-I 132 W/m 8,4 C 15,4 C 9,7 km/h (2 Bft)
22.05.2019 15:42 15,5 C 21,1 C 20,0 C 16,7 C 12,8 C 64 % 0 lf 89 cb 48 cb 44 cb 10 cb 1020,3 hPa 0,0 l/m 3,5 km/h (1 Bft) NW 308 0 min 0,000 mm 1,5 UV-I 113 W/m 8,7 C 15,5 C 11,3 km/h (2 Bft)
22.05.2019 15:40 15,6 C 22,2 C 20,0 C 16,7 C 12,8 C 63 % 0 lf 90 cb 48 cb 44 cb 10 cb 1020,3 hPa 0,0 l/m 4,6 km/h (1 Bft) N-NW 330 0 min 0,000 mm 1,6 UV-I 93 W/m 8,6 C 15,6 C 8,0 km/h (2 Bft)
22.05.2019 15:39 15,6 C 23,3 C 20,0 C 16,7 C 12,8 C 63 % 0 lf 91 cb 48 cb 44 cb 10 cb 1020,3 hPa 0,0 l/m 7,9 km/h (2 Bft) NW 323 0 min 0,000 mm 1,7 UV-I 93 W/m 8,6 C 14,8 C 11,3 km/h (2 Bft)
22.05.2019 15:37 15,6 C 25,6 C 20,6 C 16,7 C 12,8 C 66 % 0 lf 94 cb 49 cb 44 cb 10 cb 1020,4 hPa 0,0 l/m 8,4 km/h (2 Bft) W-NW 290 2 min 0,000 mm 2,4 UV-I 851 W/m 9,3 C 14,5 C 14,5 km/h (3 Bft)
22.05.2019 15:35 15,4 C 25,0 C 20,0 C 16,7 C 12,8 C 68 % 0 lf 94 cb 48 cb 44 cb 10 cb 1020,3 hPa 0,0 l/m 0,0 km/h (0 Bft) NW 317 2 min 0,000 mm 3,9 UV-I 851 W/m 9,5 C 15,4 C 0,0 km/h (0 Bft)
22.05.2019 15:33 15,4 C 23,9 C 20,0 C 16,1 C 12,8 C 66 % 0 lf 93 cb 48 cb 44 cb 10 cb 1020,4 hPa 0,0 l/m 2,3 km/h (1 Bft) NW 317 2 min 0,000 mm 4,5 UV-I 856 W/m 9,1 C 15,4 C 6,4 km/h (2 Bft)
22.05.2019 15:31 15,4 C 21,1 C 20,6 C 16,1 C 12,8 C 64 % 0 lf 89 cb 49 cb 44 cb 10 cb 1020,4 hPa 0,0 l/m 4,4 km/h (1 Bft) NW 321 0 min 0,000 mm 3,4 UV-I 206 W/m 8,6 C 15,4 C 9,7 km/h (2 Bft)
22.05.2019 15:29 15,6 C 21,7 C 20,6 C 16,1 C 12,8 C 63 % 0 lf 90 cb 49 cb 44 cb 10 cb 1020,4 hPa 0,0 l/m 4,6 km/h (1 Bft) NW 320 0 min 0,000 mm 1,8 UV-I 195 W/m 8,6 C 15,6 C 9,7 km/h (2 Bft)
22.05.2019 15:27 15,7 C 22,8 C 20,6 C 16,7 C 12,8 C 62 % 0 lf 90 cb 49 cb 45 cb 10 cb 1020,5 hPa 0,0 l/m 7,6 km/h (2 Bft) W-NW 290 0 min 0,000 mm 1,6 UV-I 179 W/m 8,4 C 15,0 C 16,1 km/h (3 Bft)
22.05.2019 15:25 15,9 C 24,4 C 21,1 C 16,7 C 12,8 C 62 % 0 lf 93 cb 49 cb 45 cb 10 cb 1020,5 hPa 0,0 l/m 9,7 km/h (2 Bft) W-NW 292 0 min 0,000 mm 1,5 UV-I 163 W/m 8,6 C 14,2 C 17,7 km/h (3 Bft)
22.05.2019 15:23 16,0 C 26,7 C 21,1 C 16,7 C 12,8 C 60 % 0 lf 95 cb 49 cb 45 cb 10 cb 1020,5 hPa 0,0 l/m 5,6 km/h (1 Bft) W-NW 292 0 min 0,000 mm 1,6 UV-I 167 W/m 8,2 C 16,0 C 16,1 km/h (3 Bft)
22.05.2019 15:21 16,1 C 29,4 C 21,1 C 16,7 C 12,8 C 61 % 0 lf 99 cb 49 cb 45 cb 10 cb 1020,4 hPa 0,0 l/m 5,6 km/h (1 Bft) NW 304 0 min 0,000 mm 1,8 UV-I 172 W/m 8,6 C 16,1 C 11,3 km/h (2 Bft)
22.05.2019 15:19 16,1 C 30,0 C 21,1 C 16,7 C 12,8 C 62 % 0 lf 100 cb 49 cb 45 cb 10 cb 1020,4 hPa 0,0 l/m 8,9 km/h (2 Bft) NW 319 2 min 0,000 mm 4,7 UV-I 909 W/m 8,8 C 14,8 C 19,3 km/h (3 Bft)
22.05.2019 15:17 15,9 C 28,9 C 21,1 C 16,7 C 12,8 C 66 % 0 lf 99 cb 49 cb 45 cb 10 cb 1020,4 hPa 0,0 l/m 1,4 km/h (1 Bft) NW 312 2 min 0,000 mm 4,9 UV-I 921 W/m 9,6 C 15,9 C 8,0 km/h (2 Bft)
22.05.2019 15:15 15,8 C 26,7 C 21,1 C 16,7 C 12,8 C 63 % 0 lf 96 cb 49 cb 45 cb 10 cb 1020,4 hPa 0,0 l/m 4,5 km/h (1 Bft) NW 313 0 min 0,000 mm 4,8 UV-I 174 W/m 8,8 C 15,8 C 16,1 km/h (3 Bft)
22.05.2019 15:13 15,8 C 27,8 C 21,1 C 16,7 C 12,8 C 63 % 0 lf 96 cb 49 cb 45 cb 10 cb 1020,4 hPa 0,0 l/m 3,9 km/h (1 Bft) NW 306 0 min 0,000 mm 2,1 UV-I 174 W/m 8,8 C 15,8 C 14,5 km/h (3 Bft)
22.05.2019 15:11 15,8 C 28,9 C 21,1 C 16,7 C 12,8 C 65 % 0 lf 98 cb 49 cb 45 cb 10 cb 1020,4 hPa 0,0 l/m 6,0 km/h (2 Bft) NW 310 2 min 0,000 mm 2,1 UV-I 944 W/m 9,2 C 15,8 C 14,5 km/h (3 Bft)
22.05.2019 15:09 15,7 C 29,4 C 21,1 C 16,7 C 12,8 C 64 % 0 lf 99 cb 49 cb 45 cb 10 cb 1020,4 hPa 0,0 l/m 7,7 km/h (2 Bft) N-NW 329 2 min 0,000 mm 3,3 UV-I 944 W/m 8,9 C 15,0 C 16,1 km/h (3 Bft)
22.05.2019 15:07 15,6 C 29,4 C 20,6 C 16,7 C 12,8 C 64 % 0 lf 99 cb 49 cb 45 cb 10 cb 1020,4 hPa 0,0 l/m 11,3 km/h (2 Bft) N-NW 337 2 min 0,000 mm 5,0 UV-I 916 W/m 8,8 C 13,2 C 22,5 km/h (4 Bft)
22.05.2019 15:05 15,4 C 28,9 C 20,6 C 16,7 C 12,8 C 63 % 0 lf 98 cb 49 cb 45 cb 10 cb 1020,4 hPa 0,0 l/m 5,8 km/h (2 Bft) W-NW 300 2 min 0,000 mm 5,1 UV-I 900 W/m 8,4 C 15,4 C 16,1 km/h (3 Bft)
22.05.2019 15:03 15,3 C 27,8 C 20,6 C 16,1 C 12,8 C 66 % 0 lf 97 cb 49 cb 45 cb 10 cb 1020,5 hPa 0,0 l/m 5,7 km/h (1 Bft) NW 307 2 min 0,000 mm 5,3 UV-I 918 W/m 9,0 C 15,3 C 17,7 km/h (3 Bft)
22.05.2019 15:01 15,0 C 25,6 C 20,6 C 16,1 C 12,8 C 67 % 0 lf 94 cb 49 cb 45 cb 10 cb 1020,4 hPa 0,0 l/m 2,0 km/h (1 Bft) NW 320 2 min 0,355 mm 5,3 UV-I 947 W/m 8,9 C 15,0 C 6,4 km/h (2 Bft)
22.05.2019 14:59 15,0 C 24,4 C 20,6 C 16,1 C 12,8 C 66 % 0 lf 93 cb 49 cb 45 cb 10 cb 1020,4 hPa 0,0 l/m 6,0 km/h (2 Bft) NW 322 0 min 0,000 mm 5,2 UV-I 260 W/m 8,7 C 15,0 C 11,3 km/h (2 Bft)
22.05.2019 14:57 15,0 C 21,7 C 20,6 C 16,1 C 12,8 C 65 % 0 lf 89 cb 49 cb 45 cb 10 cb 1020,5 hPa 0,0 l/m 4,4 km/h (1 Bft) W-NW 292 0 min 0,000 mm 3,7 UV-I 260 W/m 8,5 C 15,0 C 19,3 km/h (3 Bft)
22.05.2019 14:55 15,1 C 21,1 C 20,6 C 16,1 C 12,8 C 64 % 0 lf 88 cb 49 cb 45 cb 10 cb 1020,4 hPa 0,0 l/m 2,8 km/h (1 Bft) NW 322 0 min 0,000 mm 4,1 UV-I 250 W/m 8,3 C 15,1 C 8,0 km/h (2 Bft)
22.05.2019 14:53 15,3 C 22,8 C 21,1 C 16,1 C 12,8 C 65 % 0 lf 90 cb 49 cb 45 cb 10 cb 1020,5 hPa 0,0 l/m 6,7 km/h (2 Bft) NW 323 0 min 0,000 mm 1,9 UV-I 174 W/m 8,8 C 15,1 C 17,7 km/h (3 Bft)
22.05.2019 14:51 15,4 C 23,9 C 21,1 C 16,1 C 12,8 C 63 % 0 lf 91 cb 49 cb 45 cb 10 cb 1020,5 hPa 0,0 l/m 8,1 km/h (2 Bft) NW 318 0 min 0,000 mm 1,9 UV-I 200 W/m 8,4 C 14,5 C 14,5 km/h (3 Bft)
22.05.2019 14:49 15,7 C 24,4 C 21,1 C 16,1 C 12,8 C 62 % 0 lf 91 cb 49 cb 45 cb 10 cb 1020,5 hPa 0,0 l/m 9,5 km/h (2 Bft) W-NW 298 0 min 0,000 mm 2,2 UV-I 200 W/m 8,4 C 14,1 C 19,3 km/h (3 Bft)
22.05.2019 14:47 15,8 C 28,3 C 21,7 C 16,1 C 12,8 C 64 % 0 lf 94 cb 50 cb 45 cb 10 cb 1020,6 hPa 0,0 l/m 13,7 km/h (3 Bft) NW 306 0 min 0,000 mm 2,2 UV-I 202 W/m 9,0 C 12,6 C 22,5 km/h (4 Bft)
22.05.2019 14:45 15,9 C 30,0 C 21,7 C 16,1 C 12,8 C 66 % 0 lf 98 cb 50 cb 45 cb 10 cb 1020,4 hPa 0,0 l/m 8,7 km/h (2 Bft) N-NW 330 0 min 0,000 mm 3,1 UV-I 320 W/m 9,6 C 14,7 C 24,1 km/h (4 Bft)
22.05.2019 14:43 15,8 C 31,7 C 21,7 C 16,1 C 12,2 C 65 % 0 lf 102 cb 50 cb 45 cb 10 cb 1020,5 hPa 0,0 l/m 3,7 km/h (1 Bft) W 262 2 min 0,000 mm 5,3 UV-I 958 W/m 9,2 C 15,8 C 11,3 km/h (2 Bft)
22.05.2019 14:41 15,7 C 30,6 C 21,1 C 16,1 C 12,2 C 65 % 0 lf 100 cb 49 cb 45 cb 10 cb 1020,5 hPa 0,0 l/m 2,2 km/h (1 Bft) NW 321 2 min 0,000 mm 5,5 UV-I 947 W/m 9,1 C 15,7 C 9,7 km/h (2 Bft)
22.05.2019 14:39 15,6 C 30,6 C 21,1 C 16,1 C 12,2 C 68 % 0 lf 100 cb 49 cb 45 cb 10 cb 1020,6 hPa 0,2 l/m 1,8 km/h (1 Bft) N-NW 337 2 min 0,000 mm 5,6 UV-I 919 W/m 9,7 C 15,6 C 9,7 km/h (2 Bft)
22.05.2019 14:37 15,5 C 30,0 C 21,1 C 16,1 C 12,2 C 70 % 0 lf 99 cb 49 cb 45 cb 10 cb 1020,6 hPa 0,0 l/m 4,4 km/h (1 Bft) N-NW 338 2 min 0,000 mm 5,5 UV-I 916 W/m 10,1 C 15,5 C 9,7 km/h (2 Bft)
22.05.2019 14:35 15,4 C 28,9 C 21,1 C 16,1 C 12,2 C 67 % 0 lf 97 cb 49 cb 45 cb 10 cb 1020,7 hPa 0,0 l/m 6,1 km/h (2 Bft) N-NW 337 2 min 0,000 mm 5,7 UV-I 967 W/m 9,3 C 15,4 C 14,5 km/h (3 Bft)
22.05.2019 14:33 15,3 C 29,4 C 21,1 C 16,1 C 12,2 C 67 % 0 lf 98 cb 49 cb 45 cb 10 cb 1020,7 hPa 0,0 l/m 3,9 km/h (1 Bft) NW 311 2 min 0,000 mm 5,6 UV-I 937 W/m 9,2 C 15,3 C 14,5 km/h (3 Bft)
22.05.2019 14:31 15,2 C 29,4 C 21,1 C 16,1 C 12,2 C 66 % 0 lf 99 cb 49 cb 45 cb 10 cb 1020,5 hPa 0,0 l/m 0,6 km/h (0 Bft) N-NW 332 2 min 0,000 mm 5,6 UV-I 954 W/m 8,9 C 15,2 C 6,4 km/h (2 Bft)
22.05.2019 14:29 15,2 C 28,3 C 21,1 C 16,1 C 12,2 C 68 % 0 lf 96 cb 49 cb 45 cb 10 cb 1020,5 hPa 0,0 l/m 1,0 km/h (0 Bft) N-NW 333 2 min 0,000 mm 5,4 UV-I 916 W/m 9,3 C 15,2 C 3,2 km/h (1 Bft)
22.05.2019 14:27 15,0 C 28,3 C 21,1 C 16,1 C 12,2 C 67 % 0 lf 96 cb 49 cb 45 cb 10 cb 1020,5 hPa 0,0 l/m 0,0 km/h (0 Bft) N-NW 333 2 min 0,000 mm 5,4 UV-I 916 W/m 8,9 C 15,0 C 1,6 km/h (1 Bft)
22.05.2019 14:25 15,0 C 27,8 C 20,6 C 16,1 C 12,2 C 69 % 0 lf 95 cb 49 cb 45 cb 10 cb 1020,6 hPa 0,0 l/m 3,3 km/h (1 Bft) N-NW 330 2 min 0,000 mm 5,3 UV-I 942 W/m 9,4 C 15,0 C 9,7 km/h (2 Bft)
22.05.2019 14:23 15,0 C 26,7 C 20,6 C 16,1 C 12,2 C 69 % 0 lf 94 cb 49 cb 45 cb 10 cb 1020,6 hPa 0,0 l/m 4,5 km/h (1 Bft) NW 304 2 min 0,000 mm 4,5 UV-I 898 W/m 9,4 C 15,0 C 11,3 km/h (2 Bft)
22.05.2019 14:21 15,0 C 25,0 C 20,6 C 15,6 C 12,2 C 71 % 0 lf 92 cb 49 cb 45 cb 10 cb 1020,6 hPa 0,0 l/m 2,2 km/h (1 Bft) NW 317 2 min 0,000 mm 4,5 UV-I 904 W/m 9,8 C 15,0 C 9,7 km/h (2 Bft)
22.05.2019 14:19 15,0 C 23,9 C 21,1 C 15,6 C 12,2 C 69 % 0 lf 91 cb 50 cb 45 cb 10 cb 1020,6 hPa 0,0 l/m 6,2 km/h (2 Bft) NW 323 2 min 0,000 mm 3,1 UV-I 522 W/m 9,4 C 15,0 C 9,7 km/h (2 Bft)
22.05.2019 14:17 15,1 C 25,0 C 21,1 C 15,6 C 12,2 C 68 % 0 lf 92 cb 49 cb 45 cb 10 cb 1020,5 hPa 0,0 l/m 4,3 km/h (1 Bft) NW 319 0 min 0,000 mm 2,0 UV-I 151 W/m 9,2 C 15,1 C 12,9 km/h (3 Bft)
22.05.2019 14:15 15,2 C 26,1 C 21,1 C 15,6 C 12,2 C 69 % 0 lf 93 cb 50 cb 45 cb 10 cb 1020,6 hPa 0,0 l/m 3,7 km/h (1 Bft) NW 323 0 min 0,000 mm 1,8 UV-I 137 W/m 9,6 C 15,2 C 9,7 km/h (2 Bft)
22.05.2019 14:13 15,2 C 27,8 C 21,1 C 15,6 C 12,2 C 70 % 0 lf 95 cb 50 cb 45 cb 10 cb 1020,5 hPa 0,0 l/m 9,7 km/h (2 Bft) NW 319 0 min 0,000 mm 4,2 UV-I 327 W/m 9,8 C 13,5 C 19,3 km/h (3 Bft)
22.05.2019 14:11 15,0 C 28,3 C 21,1 C 15,6 C 12,2 C 71 % 0 lf 97 cb 50 cb 45 cb 10 cb 1020,6 hPa 0,0 l/m 5,6 km/h (1 Bft) N-NW 328 0 min 0,000 mm 3,2 UV-I 229 W/m 9,8 C 15,0 C 14,5 km/h (3 Bft)
22.05.2019 14:09 15,0 C 30,0 C 21,1 C 15,6 C 12,2 C 70 % 0 lf 100 cb 50 cb 45 cb 10 cb 1020,6 hPa 0,0 l/m 4,9 km/h (1 Bft) N-NW 329 2 min 0,000 mm 3,3 UV-I 983 W/m 9,6 C 15,0 C 16,1 km/h (3 Bft)
22.05.2019 14:07 15,0 C 30,6 C 21,1 C 15,6 C 12,2 C 68 % 0 lf 101 cb 50 cb 45 cb 10 cb 1020,6 hPa 0,0 l/m 3,8 km/h (1 Bft) W 281 2 min 0,000 mm 4,8 UV-I 983 W/m 9,1 C 15,0 C 9,7 km/h (2 Bft)
22.05.2019 14:05 15,0 C 30,6 C 21,1 C 15,6 C 12,2 C 70 % 0 lf 101 cb 50 cb 45 cb 10 cb 1020,7 hPa 0,0 l/m 3,8 km/h (1 Bft) W-NW 284 2 min 0,000 mm 5,9 UV-I 983 W/m 9,6 C 15,0 C 11,3 km/h (2 Bft)
22.05.2019 14:03 14,8 C 30,6 C 20,6 C 15,6 C 11,7 C 72 % 0 lf 102 cb 49 cb 45 cb 10 cb 1020,6 hPa 0,0 l/m 0,8 km/h (0 Bft) NW 312 2 min 0,000 mm 5,9 UV-I 933 W/m 9,8 C 14,8 C 6,4 km/h (2 Bft)
22.05.2019 14:01 14,7 C 29,4 C 20,6 C 15,6 C 11,7 C 70 % 0 lf 99 cb 49 cb 45 cb 10 cb 1020,6 hPa 0,0 l/m 3,1 km/h (1 Bft) W-NW 302 2 min 0,407 mm 5,8 UV-I 916 W/m 9,3 C 14,7 C 8,0 km/h (2 Bft)
22.05.2019 13:59 14,6 C 28,9 C 20,6 C 15,6 C 11,7 C 68 % 0 lf 98 cb 49 cb 45 cb 10 cb 1020,6 hPa 0,0 l/m 1,5 km/h (1 Bft) W-NW 301 2 min 0,000 mm 5,7 UV-I 916 W/m 8,8 C 14,6 C 9,7 km/h (2 Bft)
22.05.2019 13:57 14,6 C 27,8 C 20,6 C 15,6 C 11,7 C 70 % 0 lf 96 cb 49 cb 45 cb 10 cb 1020,6 hPa 0,0 l/m 4,8 km/h (1 Bft) NW 307 2 min 0,000 mm 5,9 UV-I 916 W/m 9,2 C 14,6 C 11,3 km/h (2 Bft)
22.05.2019 13:55 14,4 C 27,8 C 20,6 C 15,6 C 11,7 C 70 % 0 lf 97 cb 49 cb 46 cb 10 cb 1020,6 hPa 0,0 l/m 3,6 km/h (1 Bft) NW 314 2 min 0,000 mm 5,9 UV-I 916 W/m 9,0 C 14,4 C 9,7 km/h (2 Bft)
22.05.2019 13:53 14,4 C 27,2 C 20,0 C 15,6 C 11,7 C 70 % 0 lf 96 cb 49 cb 46 cb 10 cb 1020,6 hPa 0,0 l/m 4,9 km/h (1 Bft) NW 321 2 min 0,000 mm 6,0 UV-I 921 W/m 9,0 C 14,4 C 16,1 km/h (3 Bft)
22.05.2019 13:51 14,4 C 25,6 C 20,0 C 15,0 C 11,7 C 70 % 0 lf 93 cb 49 cb 45 cb 10 cb 1020,6 hPa 0,0 l/m 9,7 km/h (2 Bft) W-NW 301 2 min 0,000 mm 6,1 UV-I 956 W/m 9,0 C 12,6 C 17,7 km/h (3 Bft)
22.05.2019 13:49 14,4 C 23,9 C 20,0 C 15,0 C 11,7 C 71 % 0 lf 91 cb 49 cb 46 cb 10 cb 1020,6 hPa 0,0 l/m 8,1 km/h (2 Bft) NW 324 0 min 0,000 mm 5,9 UV-I 302 W/m 9,2 C 13,4 C 19,3 km/h (3 Bft)
22.05.2019 13:47 14,4 C 25,0 C 20,0 C 15,0 C 11,7 C 69 % 0 lf 93 cb 49 cb 46 cb 10 cb 1020,6 hPa 0,0 l/m 5,6 km/h (1 Bft) N-NW 331 2 min 0,000 mm 3,0 UV-I 916 W/m 8,8 C 14,4 C 16,1 km/h (3 Bft)
22.05.2019 13:45 14,5 C 23,3 C 20,6 C 15,0 C 11,7 C 69 % 0 lf 91 cb 49 cb 46 cb 10 cb 1020,6 hPa 0,0 l/m 8,7 km/h (2 Bft) W-NW 291 2 min 0,000 mm 5,9 UV-I 896 W/m 8,9 C 13,2 C 16,1 km/h (3 Bft)
22.05.2019 13:43 14,7 C 22,2 C 20,6 C 15,0 C 11,7 C 68 % 0 lf 89 cb 49 cb 46 cb 10 cb 1020,6 hPa 0,0 l/m 11,8 km/h (2 Bft) W-NW 301 0 min 0,000 mm 6,0 UV-I 167 W/m 8,9 C 12,0 C 17,7 km/h (3 Bft)
22.05.2019 13:41 14,8 C 23,3 C 20,6 C 15,0 C 11,7 C 69 % 0 lf 90 cb 49 cb 46 cb 10 cb 1020,6 hPa 0,0 l/m 7,9 km/h (2 Bft) NW 304 0 min 0,000 mm 2,4 UV-I 167 W/m 9,2 C 13,9 C 14,5 km/h (3 Bft)
22.05.2019 13:39 15,0 C 25,6 C 20,6 C 15,0 C 11,7 C 71 % 0 lf 92 cb 49 cb 46 cb 10 cb 1020,6 hPa 0,0 l/m 3,9 km/h (1 Bft) NW 325 0 min 0,000 mm 2,5 UV-I 190 W/m 9,8 C 15,0 C 14,5 km/h (3 Bft)
22.05.2019 13:37 15,0 C 27,8 C 20,6 C 15,0 C 11,7 C 72 % 0 lf 96 cb 49 cb 46 cb 10 cb 1020,6 hPa 0,0 l/m 1,1 km/h (1 Bft) NW 315 2 min 0,000 mm 2,6 UV-I 962 W/m 10,0 C 15,0 C 4,8 km/h (1 Bft)
22.05.2019 13:35 14,9 C 27,8 C 20,6 C 15,0 C 11,7 C 74 % 0 lf 96 cb 49 cb 46 cb 10 cb 1020,6 hPa 0,0 l/m 3,4 km/h (1 Bft) NW 315 2 min 0,000 mm 3,6 UV-I 962 W/m 10,3 C 14,9 C 9,7 km/h (2 Bft)
22.05.2019 13:33 14,8 C 27,8 C 20,6 C 15,0 C 11,7 C 73 % 0 lf 96 cb 50 cb 46 cb 10 cb 1020,6 hPa 0,0 l/m 6,0 km/h (2 Bft) NW 315 2 min 0,000 mm 6,0 UV-I 962 W/m 10,0 C 14,8 C 16,1 km/h (3 Bft)
22.05.2019 13:31 14,8 C 28,9 C 20,6 C 15,0 C 11,7 C 72 % 0 lf 98 cb 50 cb 46 cb 10 cb 1020,5 hPa 0,0 l/m 8,6 km/h (2 Bft) N-NW 332 2 min 0,000 mm 3,1 UV-I 896 W/m 9,8 C 13,6 C 17,7 km/h (3 Bft)
22.05.2019 13:29 14,8 C 28,9 C 20,6 C 15,0 C 11,7 C 72 % 0 lf 98 cb 50 cb 46 cb 10 cb 1020,6 hPa 0,0 l/m 7,9 km/h (2 Bft) N 360 2 min 0,000 mm 5,2 UV-I 879 W/m 9,8 C 13,9 C 22,5 km/h (4 Bft)
22.05.2019 13:27 14,7 C 28,3 C 20,6 C 15,0 C 11,7 C 73 % 0 lf 98 cb 50 cb 46 cb 10 cb 1020,6 hPa 0,0 l/m 4,9 km/h (1 Bft) N-NW 332 2 min 0,000 mm 6,0 UV-I 896 W/m 9,9 C 14,7 C 9,7 km/h (2 Bft)
22.05.2019 13:25 14,7 C 27,8 C 20,6 C 15,0 C 11,7 C 73 % 0 lf 97 cb 50 cb 46 cb 10 cb 1020,6 hPa 0,0 l/m 6,3 km/h (2 Bft) N-NW 336 2 min 0,000 mm 6,0 UV-I 896 W/m 9,9 C 14,7 C 9,7 km/h (2 Bft)
22.05.2019 13:23 14,7 C 29,4 C 20,6 C 15,0 C 11,7 C 72 % 0 lf 100 cb 50 cb 46 cb 10 cb 1020,6 hPa 0,0 l/m 1,9 km/h (1 Bft) N 350 2 min 0,000 mm 3,5 UV-I 912 W/m 9,7 C 14,7 C 4,8 km/h (1 Bft)
22.05.2019 13:21 14,6 C 29,4 C 20,6 C 14,4 C 11,7 C 71 % 0 lf 100 cb 50 cb 46 cb 10 cb 1020,6 hPa 0,0 l/m 1,1 km/h (1 Bft) N 350 2 min 0,000 mm 6,1 UV-I 912 W/m 9,4 C 14,6 C 6,4 km/h (2 Bft)
22.05.2019 13:19 14,6 C 29,4 C 20,6 C 14,4 C 11,7 C 70 % 0 lf 100 cb 50 cb 46 cb 10 cb 1020,5 hPa 0,0 l/m 7,0 km/h (2 Bft) N-NW 348 2 min 0,000 mm 6,1 UV-I 914 W/m 9,2 C 14,3 C 14,5 km/h (3 Bft)
22.05.2019 13:17 14,6 C 29,4 C 20,6 C 14,4 C 11,7 C 73 % 0 lf 100 cb 50 cb 46 cb 10 cb 1020,6 hPa 0,0 l/m 9,4 km/h (2 Bft) NW 311 2 min 0,000 mm 6,2 UV-I 962 W/m 9,8 C 13,0 C 20,9 km/h (4 Bft)
22.05.2019 13:15 14,4 C 29,4 C 20,6 C 14,4 C 11,7 C 73 % 0 lf 100 cb 50 cb 46 cb 10 cb 1020,6 hPa 0,2 l/m 7,2 km/h (2 Bft) N-NO 13 2 min 0,000 mm 2,6 UV-I 969 W/m 9,6 C 13,9 C 19,3 km/h (3 Bft)
22.05.2019 13:13 14,3 C 30,0 C 20,0 C 14,4 C 11,7 C 74 % 0 lf 101 cb 50 cb 46 cb 10 cb 1020,6 hPa 0,0 l/m 7,3 km/h (2 Bft) N-NW 333 2 min 0,000 mm 6,2 UV-I 970 W/m 9,7 C 13,8 C 14,5 km/h (3 Bft)
22.05.2019 13:11 14,2 C 30,0 C 20,0 C 14,4 C 11,7 C 73 % 0 lf 102 cb 50 cb 46 cb 10 cb 1020,6 hPa 0,0 l/m 5,6 km/h (1 Bft) N-NW 344 1 min 0,000 mm 6,0 UV-I 868 W/m 9,4 C 14,2 C 9,7 km/h (2 Bft)
22.05.2019 13:10 14,2 C 30,0 C 20,0 C 14,4 C 11,7 C 73 % 0 lf 102 cb 50 cb 46 cb 10 cb 1020,6 hPa 0,0 l/m 5,3 km/h (1 Bft) N-NW 328 1 min 0,000 mm 5,8 UV-I 846 W/m 9,4 C 14,2 C 9,7 km/h (2 Bft)
22.05.2019 13:09 14,2 C 30,0 C 20,0 C 14,4 C 11,7 C 72 % 0 lf 102 cb 50 cb 46 cb 10 cb 1020,6 hPa 0,0 l/m 8,0 km/h (2 Bft) N 351 3 min 0,000 mm 5,9 UV-I 856 W/m 9,2 C 13,3 C 16,1 km/h (3 Bft)
22.05.2019 13:06 14,1 C 30,0 C 20,0 C 13,9 C 11,7 C 71 % 0 lf 102 cb 50 cb 46 cb 10 cb 1020,6 hPa 0,0 l/m 8,2 km/h (2 Bft) NW 314 2 min 0,000 mm 6,1 UV-I 854 W/m 8,9 C 13,0 C 16,1 km/h (3 Bft)
22.05.2019 13:04 14,1 C 29,4 C 19,4 C 13,9 C 11,7 C 72 % 0 lf 101 cb 49 cb 46 cb 10 cb 1020,6 hPa 0,0 l/m 8,8 km/h (2 Bft) NW 311 2 min 0,000 mm 5,9 UV-I 823 W/m 9,1 C 12,7 C 16,1 km/h (3 Bft)
22.05.2019 13:02 14,1 C 29,4 C 19,4 C 13,9 C 11,7 C 72 % 0 lf 101 cb 50 cb 46 cb 10 cb 1020,6 hPa 0,0 l/m 3,9 km/h (1 Bft) W-NW 290 2 min 0,000 mm 6,1 UV-I 810 W/m 9,1 C 14,1 C 11,3 km/h (2 Bft)
22.05.2019 13:00 14,1 C 28,9 C 19,4 C 13,9 C 11,1 C 74 % 0 lf 100 cb 50 cb 46 cb 10 cb 1020,7 hPa 0,0 l/m 7,4 km/h (2 Bft) W-NW 301 2 min 0,406 mm 5,9 UV-I 773 W/m 9,5 C 13,5 C 20,9 km/h (4 Bft)
22.05.2019 12:58 14,1 C 29,4 C 19,4 C 13,9 C 11,1 C 73 % 0 lf 101 cb 50 cb 46 cb 10 cb 1020,7 hPa 0,0 l/m 6,6 km/h (2 Bft) N-NW 341 2 min 0,000 mm 5,9 UV-I 731 W/m 9,3 C 14,0 C 14,5 km/h (3 Bft)
22.05.2019 12:56 14,0 C 29,4 C 19,4 C 13,9 C 11,1 C 72 % 0 lf 102 cb 50 cb 46 cb 10 cb 1020,7 hPa 0,0 l/m 8,2 km/h (2 Bft) N-NW 340 2 min 0,000 mm 6,0 UV-I 731 W/m 9,0 C 12,9 C 17,7 km/h (3 Bft)
22.05.2019 12:54 14,0 C 29,4 C 18,9 C 13,9 C 11,1 C 73 % 0 lf 102 cb 49 cb 46 cb 10 cb 1020,7 hPa 0,0 l/m 5,5 km/h (1 Bft) W-NW 291 2 min 0,000 mm 5,9 UV-I 710 W/m 9,2 C 14,0 C 14,5 km/h (3 Bft)
22.05.2019 12:52 14,0 C 30,0 C 18,9 C 13,9 C 11,1 C 74 % 0 lf 104 cb 49 cb 46 cb 10 cb 1020,7 hPa 0,0 l/m 6,6 km/h (2 Bft) W-NW 293 2 min 0,000 mm 5,8 UV-I 724 W/m 9,4 C 13,9 C 19,3 km/h (3 Bft)
22.05.2019 12:50 13,9 C 28,9 C 18,9 C 13,3 C 11,1 C 76 % 0 lf 101 cb 50 cb 46 cb 10 cb 1020,7 hPa 0,0 l/m 4,2 km/h (1 Bft) N-NW 331 2 min 0,000 mm 5,9 UV-I 751 W/m 9,7 C 13,9 C 8,0 km/h (2 Bft)
22.05.2019 12:48 13,8 C 28,3 C 18,9 C 13,3 C 11,1 C 76 % 0 lf 100 cb 50 cb 46 cb 10 cb 1020,6 hPa 0,0 l/m 1,1 km/h (1 Bft) N 355 2 min 0,000 mm 5,8 UV-I 722 W/m 9,6 C 13,8 C 6,4 km/h (2 Bft)
22.05.2019 12:46 13,7 C 28,3 C 18,3 C 13,3 C 11,1 C 76 % 0 lf 100 cb 49 cb 46 cb 10 cb 1020,7 hPa 0,0 l/m 0,0 km/h (0 Bft) N 355 1 min 0,000 mm 5,9 UV-I 752 W/m 9,5 C 13,7 C 0,0 km/h (0 Bft)
22.05.2019 12:45 13,7 C 28,3 C 18,3 C 13,3 C 11,1 C 77 % 0 lf 100 cb 49 cb 46 cb 10 cb 1020,6 hPa 0,0 l/m 0,6 km/h (0 Bft) N 355 1 min 0,000 mm 5,8 UV-I 761 W/m 9,7 C 13,7 C 4,8 km/h (1 Bft)
22.05.2019 12:44 13,6 C 27,8 C 18,3 C 13,3 C 11,1 C 76 % 0 lf 99 cb 49 cb 46 cb 10 cb 1020,6 hPa 0,0 l/m 3,1 km/h (1 Bft) N 355 2 min 0,000 mm 5,9 UV-I 779 W/m 9,4 C 13,6 C 16,1 km/h (3 Bft)
22.05.2019 12:42 13,5 C 27,8 C 18,3 C 13,3 C 11,1 C 75 % 0 lf 100 cb 49 cb 46 cb 10 cb 1020,7 hPa 0,0 l/m 3,9 km/h (1 Bft) N 355 2 min 0,000 mm 5,8 UV-I 782 W/m 9,2 C 13,5 C 11,3 km/h (2 Bft)
22.05.2019 12:40 13,4 C 27,2 C 18,3 C 13,3 C 11,1 C 76 % 0 lf 99 cb 49 cb 46 cb 10 cb 1020,7 hPa 0,0 l/m 1,3 km/h (1 Bft) N-NW 332 2 min 0,000 mm 5,7 UV-I 775 W/m 9,3 C 13,4 C 6,4 km/h (2 Bft)
22.05.2019 12:38 13,4 C 27,2 C 18,3 C 13,3 C 11,1 C 74 % 0 lf 99 cb 50 cb 46 cb 10 cb 1020,7 hPa 0,0 l/m 0,5 km/h (0 Bft) N-NW 331 2 min 0,000 mm 5,7 UV-I 798 W/m 8,9 C 13,4 C 4,8 km/h (1 Bft)
22.05.2019 12:36 13,4 C 26,7 C 17,8 C 13,3 C 11,1 C 78 % 0 lf 98 cb 49 cb 46 cb 10 cb 1020,7 hPa 0,0 l/m 1,6 km/h (1 Bft) N-NW 332 2 min 0,000 mm 2,7 UV-I 847 W/m 9,6 C 13,4 C 6,4 km/h (2 Bft)
22.05.2019 12:34 13,3 C 27,2 C 17,8 C 13,3 C 11,1 C 76 % 0 lf 100 cb 49 cb 46 cb 10 cb 1020,7 hPa 0,0 l/m 2,4 km/h (1 Bft) N 355 2 min 0,000 mm 5,9 UV-I 896 W/m 9,2 C 13,3 C 9,7 km/h (2 Bft)
22.05.2019 12:32 13,2 C 27,2 C 17,8 C 12,8 C 11,1 C 77 % 0 lf 100 cb 49 cb 46 cb 10 cb 1020,7 hPa 0,0 l/m 5,2 km/h (1 Bft) N 355 2 min 0,000 mm 5,2 UV-I 870 W/m 9,3 C 13,2 C 11,3 km/h (2 Bft)
22.05.2019 12:30 13,1 C 27,2 C 17,8 C 12,8 C 11,1 C 76 % 0 lf 100 cb 49 cb 46 cb 10 cb 1020,8 hPa 0,0 l/m 6,6 km/h (2 Bft) NW 321 2 min 0,000 mm 5,8 UV-I 886 W/m 9,0 C 13,0 C 14,5 km/h (3 Bft)
22.05.2019 12:28 13,2 C 26,7 C 17,2 C 12,8 C 11,1 C 76 % 0 lf 99 cb 49 cb 46 cb 10 cb 1020,7 hPa 0,0 l/m 8,1 km/h (2 Bft) W 270 2 min 0,000 mm 5,7 UV-I 935 W/m 9,1 C 12,2 C 16,1 km/h (3 Bft)
22.05.2019 12:26 13,2 C 26,7 C 17,2 C 12,8 C 11,1 C 78 % 0 lf 99 cb 49 cb 46 cb 10 cb 1020,7 hPa 0,0 l/m 6,1 km/h (2 Bft) NW 304 2 min 0,000 mm 5,7 UV-I 935 W/m 9,4 C 13,2 C 11,3 km/h (2 Bft)
22.05.2019 12:24 13,1 C 26,7 C 17,2 C 12,8 C 11,1 C 80 % 0 lf 100 cb 49 cb 46 cb 10 cb 1020,6 hPa 0,0 l/m 3,0 km/h (1 Bft) N-NW 344 2 min 0,000 mm 5,6 UV-I 861 W/m 9,7 C 13,1 C 8,0 km/h (2 Bft)
22.05.2019 12:22 12,9 C 26,7 C 16,7 C 12,8 C 11,1 C 77 % 0 lf 100 cb 49 cb 46 cb 10 cb 1020,7 hPa 0,0 l/m 5,6 km/h (1 Bft) N-NW 340 2 min 0,000 mm 5,5 UV-I 851 W/m 9,0 C 12,9 C 11,3 km/h (2 Bft)
22.05.2019 12:20 12,9 C 25,6 C 16,7 C 12,8 C 11,1 C 77 % 0 lf 98 cb 49 cb 46 cb 10 cb 1020,6 hPa 0,0 l/m 6,2 km/h (2 Bft) NW 305 2 min 0,000 mm 5,4 UV-I 842 W/m 9,0 C 12,9 C 14,5 km/h (3 Bft)
22.05.2019 12:18 12,9 C 25,0 C 16,7 C 12,8 C 11,1 C 77 % 0 lf 97 cb 49 cb 46 cb 10 cb 1020,7 hPa 0,0 l/m 6,0 km/h (2 Bft) NW 317 2 min 0,000 mm 5,4 UV-I 847 W/m 9,0 C 12,9 C 11,3 km/h (2 Bft)
22.05.2019 12:16 12,9 C 23,3 C 16,7 C 12,8 C 11,1 C 77 % 0 lf 94 cb 49 cb 46 cb 10 cb 1020,7 hPa 0,0 l/m 3,2 km/h (1 Bft) NW 324 2 min 0,000 mm 5,5 UV-I 940 W/m 9,0 C 12,9 C 6,4 km/h (2 Bft)
22.05.2019 12:14 12,9 C 23,9 C 16,1 C 12,8 C 11,1 C 78 % 0 lf 95 cb 49 cb 46 cb 10 cb 1020,7 hPa 0,2 l/m 2,8 km/h (1 Bft) NW 323 2 min 0,000 mm 3,0 UV-I 940 W/m 9,2 C 12,9 C 6,4 km/h (2 Bft)
22.05.2019 12:12 12,8 C 24,4 C 16,1 C 12,2 C 11,1 C 80 % 0 lf 96 cb 49 cb 46 cb 10 cb 1020,7 hPa 0,0 l/m 1,1 km/h (1 Bft) N-NW 327 2 min 0,000 mm 5,8 UV-I 939 W/m 9,4 C 12,8 C 8,0 km/h (2 Bft)
22.05.2019 12:10 12,7 C 24,4 C 16,1 C 12,2 C 11,1 C 78 % 0 lf 97 cb 49 cb 46 cb 10 cb 1020,8 hPa 0,0 l/m 6,5 km/h (2 Bft) NW 326 2 min 0,000 mm 5,4 UV-I 877 W/m 9,0 C 12,7 C 12,9 km/h (3 Bft)
22.05.2019 12:08 12,6 C 23,3 C 15,6 C 12,2 C 11,1 C 78 % 0 lf 95 cb 49 cb 46 cb 10 cb 1020,8 hPa 0,0 l/m 7,5 km/h (2 Bft) NW 317 2 min 0,000 mm 5,4 UV-I 861 W/m 8,9 C 11,9 C 16,1 km/h (3 Bft)
22.05.2019 12:06 12,5 C 22,8 C 15,6 C 12,2 C 11,1 C 79 % 0 lf 94 cb 49 cb 46 cb 10 cb 1020,7 hPa 0,0 l/m 9,4 km/h (2 Bft) N-NW 328 2 min 0,000 mm 5,3 UV-I 838 W/m 9,0 C 10,7 C 20,9 km/h (4 Bft)
22.05.2019 12:04 12,4 C 22,2 C 15,6 C 12,2 C 11,1 C 78 % 0 lf 93 cb 49 cb 46 cb 10 cb 1020,7 hPa 0,0 l/m 6,9 km/h (2 Bft) W-NW 302 2 min 0,000 mm 5,2 UV-I 809 W/m 8,7 C 12,1 C 17,7 km/h (3 Bft)
22.05.2019 12:02 12,4 C 21,7 C 15,0 C 12,2 C 11,1 C 77 % 0 lf 93 cb 49 cb 46 cb 10 cb 1020,6 hPa 0,0 l/m 4,5 km/h (1 Bft) W-NW 295 2 min 0,000 mm 5,1 UV-I 831 W/m 8,5 C 12,4 C 14,5 km/h (3 Bft)
22.05.2019 12:00 12,4 C 20,6 C 15,0 C 12,2 C 11,1 C 78 % 0 lf 91 cb 49 cb 46 cb 10 cb 1020,6 hPa 0,0 l/m 6,8 km/h (2 Bft) W-NW 298 2 min 0,356 mm 5,2 UV-I 837 W/m 8,7 C 12,1 C 19,3 km/h (3 Bft)
22.05.2019 11:58 12,4 C 19,4 C 14,4 C 12,2 C 11,1 C 79 % 0 lf 90 cb 48 cb 46 cb 10 cb 1020,6 hPa 0,0 l/m 4,6 km/h (1 Bft) W-NW 292 2 min 0,000 mm 5,1 UV-I 833 W/m 8,9 C 12,4 C 8,0 km/h (2 Bft)
22.05.2019 11:56 12,4 C 18,3 C 14,4 C 12,2 C 11,1 C 79 % 0 lf 88 cb 48 cb 46 cb 10 cb 1020,6 hPa 0,0 l/m 11,6 km/h (2 Bft) W-NW 292 2 min 0,000 mm 5,1 UV-I 789 W/m 8,9 C 9,5 C 19,3 km/h (3 Bft)
22.05.2019 11:54 12,3 C 17,8 C 13,9 C 12,2 C 11,1 C 81 % 0 lf 87 cb 48 cb 46 cb 10 cb 1020,6 hPa 0,0 l/m 7,0 km/h (2 Bft) N-NW 342 2 min 0,000 mm 5,2 UV-I 833 W/m 9,1 C 11,9 C 11,3 km/h (2 Bft)
22.05.2019 11:52 12,2 C 16,7 C 13,9 C 11,7 C 11,1 C 80 % 1 lf 86 cb 48 cb 45 cb 10 cb 1020,5 hPa 0,0 l/m 6,6 km/h (2 Bft) N 360 2 min 0,000 mm 5,1 UV-I 814 W/m 8,9 C 12,1 C 16,1 km/h (3 Bft)
22.05.2019 11:50 12,1 C 16,7 C 13,3 C 11,7 C 11,1 C 79 % 0 lf 86 cb 48 cb 45 cb 10 cb 1020,5 hPa 0,0 l/m 4,9 km/h (1 Bft) N-NW 346 2 min 0,000 mm 5,1 UV-I 814 W/m 8,6 C 12,1 C 9,7 km/h (2 Bft)
22.05.2019 11:48 12,1 C 16,7 C 13,3 C 11,7 C 11,1 C 79 % 0 lf 87 cb 48 cb 45 cb 10 cb 1020,6 hPa 0,0 l/m 9,6 km/h (2 Bft) N-NW 340 2 min 0,000 mm 5,0 UV-I 807 W/m 8,6 C 10,1 C 19,3 km/h (3 Bft)
22.05.2019 11:46 12,1 C 15,6 C 13,3 C 11,7 C 11,1 C 81 % 0 lf 86 cb 48 cb 45 cb 10 cb 1020,5 hPa 0,0 l/m 12,3 km/h (3 Bft) W-NW 294 2 min 0,000 mm 5,0 UV-I 805 W/m 8,9 C 8,8 C 20,9 km/h (4 Bft)
22.05.2019 11:44 12,0 C 15,0 C 12,8 C 11,7 C 11,1 C 81 % 0 lf 85 cb 48 cb 45 cb 10 cb 1020,5 hPa 0,0 l/m 9,2 km/h (2 Bft) N-NW 337 2 min 0,000 mm 5,0 UV-I 821 W/m 8,8 C 10,2 C 19,3 km/h (3 Bft)
22.05.2019 11:42 11,9 C 15,0 C 12,8 C 11,7 C 11,1 C 84 % 0 lf 86 cb 48 cb 45 cb 10 cb 1020,5 hPa 0,0 l/m 7,2 km/h (2 Bft) W-NW 294 2 min 0,000 mm 4,9 UV-I 831 W/m 9,3 C 11,4 C 12,9 km/h (3 Bft)
22.05.2019 11:40 11,8 C 14,4 C 12,8 C 11,7 C 11,1 C 83 % 0 lf 85 cb 48 cb 45 cb 10 cb 1020,5 hPa 0,0 l/m 4,6 km/h (1 Bft) N 10 2 min 0,000 mm 4,9 UV-I 830 W/m 9,0 C 11,8 C 11,3 km/h (2 Bft)
22.05.2019 11:38 11,7 C 13,9 C 12,8 C 11,7 C 11,1 C 83 % 0 lf 84 cb 48 cb 45 cb 10 cb 1020,6 hPa 0,0 l/m 7,2 km/h (2 Bft) NW 316 2 min 0,000 mm 4,8 UV-I 800 W/m 8,9 C 11,2 C 14,5 km/h (3 Bft)
22.05.2019 11:36 11,7 C 13,9 C 12,8 C 11,7 C 11,1 C 84 % 0 lf 84 cb 48 cb 45 cb 10 cb 1020,6 hPa 0,0 l/m 7,5 km/h (2 Bft) W-NW 296 0 min 0,000 mm 4,4 UV-I 390 W/m 9,1 C 11,0 C 17,7 km/h (3 Bft)
22.05.2019 11:34 11,4 C 13,3 C 12,8 C 11,7 C 11,1 C 84 % 0 lf 84 cb 48 cb 45 cb 10 cb 1020,6 hPa 0,0 l/m 5,0 km/h (1 Bft) NW 324 2 min 0,000 mm 4,9 UV-I 858 W/m 8,8 C 11,4 C 16,1 km/h (3 Bft)
22.05.2019 11:32 11,3 C 12,8 C 12,8 C 11,7 C 11,1 C 85 % 0 lf 84 cb 48 cb 46 cb 10 cb 1020,5 hPa 0,0 l/m 6,5 km/h (2 Bft) NW 319 2 min 0,000 mm 4,8 UV-I 828 W/m 8,9 C 11,3 C 11,3 km/h (2 Bft)
22.05.2019 11:30 11,2 C 12,8 C 12,2 C 11,7 C 11,1 C 84 % 0 lf 84 cb 47 cb 46 cb 10 cb 1020,5 hPa 0,0 l/m 0,0 km/h (0 Bft) NW 323 2 min 0,000 mm 4,9 UV-I 826 W/m 8,6 C 11,2 C 1,6 km/h (1 Bft)
22.05.2019 11:28 11,1 C 12,8 C 12,2 C 11,7 C 11,1 C 84 % 0 lf 84 cb 47 cb 46 cb 10 cb 1020,6 hPa 0,0 l/m 4,1 km/h (1 Bft) NW 323 2 min 0,000 mm 4,6 UV-I 798 W/m 8,5 C 11,1 C 9,7 km/h (2 Bft)
22.05.2019 11:26 10,9 C 12,8 C 12,2 C 11,7 C 11,1 C 84 % 0 lf 84 cb 47 cb 46 cb 10 cb 1020,5 hPa 0,0 l/m 9,5 km/h (2 Bft) W-NW 297 2 min 0,000 mm 4,6 UV-I 784 W/m 8,3 C 8,9 C 16,1 km/h (3 Bft)
22.05.2019 11:24 10,9 C 12,8 C 12,2 C 11,7 C 11,1 C 84 % 0 lf 84 cb 47 cb 46 cb 10 cb 1020,5 hPa 0,0 l/m 8,4 km/h (2 Bft) W-NW 295 2 min 0,000 mm 4,7 UV-I 795 W/m 8,3 C 9,5 C 16,1 km/h (3 Bft)
22.05.2019 11:22 10,8 C 12,8 C 12,2 C 11,7 C 11,1 C 84 % 0 lf 84 cb 47 cb 46 cb 10 cb 1020,5 hPa 0,0 l/m 3,9 km/h (1 Bft) NW 304 2 min 0,000 mm 4,5 UV-I 599 W/m 8,2 C 10,8 C 9,7 km/h (2 Bft)
22.05.2019 11:20 10,8 C 12,8 C 12,2 C 11,7 C 11,1 C 85 % 0 lf 84 cb 47 cb 46 cb 10 cb 1020,4 hPa 0,0 l/m 5,7 km/h (1 Bft) NW 306 0 min 0,000 mm 2,3 UV-I 218 W/m 8,4 C 10,8 C 12,9 km/h (3 Bft)
22.05.2019 11:18 10,8 C 12,8 C 12,2 C 11,7 C 11,1 C 86 % 0 lf 84 cb 47 cb 46 cb 10 cb 1020,5 hPa 0,0 l/m 12,2 km/h (2 Bft) W-NW 302 2 min 0,000 mm 2,8 UV-I 773 W/m 8,6 C 7,3 C 19,3 km/h (3 Bft)
22.05.2019 11:16 10,7 C 12,2 C 12,2 C 11,7 C 11,1 C 86 % 0 lf 84 cb 48 cb 46 cb 10 cb 1020,3 hPa 0,0 l/m 7,4 km/h (2 Bft) W-NW 292 2 min 0,000 mm 4,7 UV-I 773 W/m 8,5 C 10,0 C 14,5 km/h (3 Bft)
22.05.2019 11:14 10,6 C 11,7 C 12,2 C 11,7 C 11,1 C 86 % 0 lf 83 cb 48 cb 46 cb 10 cb 1020,4 hPa 0,0 l/m 2,7 km/h (1 Bft) W-NW 292 2 min 0,000 mm 4,4 UV-I 775 W/m 8,4 C 10,6 C 11,3 km/h (2 Bft)
22.05.2019 11:12 10,5 C 12,2 C 12,2 C 11,7 C 11,1 C 85 % 0 lf 84 cb 48 cb 46 cb 10 cb 1020,4 hPa 0,0 l/m 5,9 km/h (2 Bft) W-NW 290 2 min 0,000 mm 4,3 UV-I 773 W/m 8,1 C 10,5 C 12,9 km/h (3 Bft)
22.05.2019 11:10 10,5 C 12,2 C 12,2 C 11,7 C 11,1 C 87 % 0 lf 84 cb 48 cb 46 cb 10 cb 1020,4 hPa 0,0 l/m 5,8 km/h (2 Bft) W-NW 292 2 min 0,000 mm 4,3 UV-I 772 W/m 8,4 C 10,5 C 9,7 km/h (2 Bft)
22.05.2019 11:08 10,3 C 12,2 C 12,2 C 11,7 C 11,1 C 87 % 0 lf 84 cb 48 cb 46 cb 10 cb 1020,3 hPa 0,0 l/m 7,2 km/h (2 Bft) W-NW 299 2 min 0,000 mm 4,2 UV-I 772 W/m 8,2 C 9,7 C 16,1 km/h (3 Bft)
22.05.2019 11:06 10,2 C 12,2 C 12,2 C 11,7 C 11,1 C 87 % 0 lf 84 cb 48 cb 46 cb 10 cb 1020,3 hPa 0,0 l/m 3,9 km/h (1 Bft) NW 317 2 min 0,000 mm 2,7 UV-I 738 W/m 8,1 C 10,2 C 9,7 km/h (2 Bft)
22.05.2019 11:04 10,1 C 12,2 C 12,2 C 11,7 C 11,1 C 86 % 0 lf 84 cb 48 cb 46 cb 10 cb 1020,4 hPa 0,0 l/m 3,4 km/h (1 Bft) N-NW 327 2 min 0,000 mm 3,1 UV-I 738 W/m 7,9 C 10,1 C 12,9 km/h (3 Bft)
22.05.2019 11:02 10,1 C 12,2 C 12,2 C 11,1 C 11,1 C 87 % 0 lf 84 cb 48 cb 46 cb 10 cb 1020,3 hPa 0,0 l/m 7,3 km/h (2 Bft) N-NW 334 2 min 0,000 mm 4,1 UV-I 786 W/m 8,0 C 9,4 C 14,5 km/h (3 Bft)
22.05.2019 11:00 9,9 C 12,2 C 12,2 C 11,1 C 11,1 C 87 % 0 lf 83 cb 48 cb 46 cb 10 cb 1020,4 hPa 0,0 l/m 4,3 km/h (1 Bft) NW 319 2 min 0,152 mm 4,2 UV-I 810 W/m 7,8 C 9,9 C 9,7 km/h (2 Bft)
22.05.2019 10:58 9,9 C 12,2 C 12,2 C 11,1 C 11,1 C 87 % 0 lf 84 cb 48 cb 46 cb 10 cb 1020,4 hPa 0,0 l/m 5,3 km/h (1 Bft) W-NW 299 0 min 0,000 mm 1,6 UV-I 169 W/m 7,8 C 9,9 C 9,7 km/h (2 Bft)
22.05.2019 10:56 9,8 C 12,8 C 12,2 C 11,1 C 11,1 C 88 % 0 lf 84 cb 48 cb 46 cb 10 cb 1020,4 hPa 0,0 l/m 6,4 km/h (2 Bft) W-NW 294 2 min 0,000 mm 3,0 UV-I 663 W/m 7,9 C 9,8 C 14,5 km/h (3 Bft)
22.05.2019 10:54 9,7 C 11,7 C 12,2 C 11,1 C 11,1 C 88 % 0 lf 83 cb 48 cb 46 cb 10 cb 1020,4 hPa 0,0 l/m 2,4 km/h (1 Bft) W-NW 300 2 min 0,000 mm 3,7 UV-I 786 W/m 7,8 C 9,7 C 6,4 km/h (2 Bft)
22.05.2019 10:52 9,7 C 11,7 C 12,2 C 11,1 C 11,1 C 87 % 0 lf 83 cb 48 cb 46 cb 10 cb 1020,4 hPa 0,0 l/m 1,5 km/h (1 Bft) W-NW 300 2 min 0,000 mm 3,9 UV-I 754 W/m 7,6 C 9,7 C 8,0 km/h (2 Bft)
22.05.2019 10:50 9,7 C 12,2 C 12,2 C 11,1 C 11,1 C 87 % 0 lf 84 cb 48 cb 46 cb 10 cb 1020,4 hPa 0,0 l/m 6,2 km/h (2 Bft) W-NW 298 0 min 0,000 mm 1,8 UV-I 127 W/m 7,6 C 9,7 C 11,3 km/h (2 Bft)
22.05.2019 10:48 9,8 C 12,8 C 12,2 C 11,1 C 11,1 C 89 % 0 lf 84 cb 48 cb 46 cb 10 cb 1020,4 hPa 0,0 l/m 9,3 km/h (2 Bft) W-NW 298 0 min 0,000 mm 1,5 UV-I 134 W/m 8,1 C 7,8 C 17,7 km/h (3 Bft)
22.05.2019 10:46 9,7 C 12,8 C 12,2 C 11,1 C 11,1 C 89 % 0 lf 84 cb 48 cb 46 cb 10 cb 1020,3 hPa 0,0 l/m 6,4 km/h (2 Bft) W-NW 296 0 min 0,000 mm 1,5 UV-I 179 W/m 8,0 C 9,7 C 11,3 km/h (2 Bft)
22.05.2019 10:45 9,7 C 12,8 C 12,2 C 11,1 C 11,1 C 90 % 0 lf 84 cb 48 cb 46 cb 10 cb 1020,4 hPa 0,0 l/m 4,8 km/h (1 Bft) W-NW 297 0 min 0,000 mm 1,6 UV-I 209 W/m 8,1 C 9,7 C 8,0 km/h (2 Bft)
22.05.2019 10:44 9,7 C 12,8 C 11,7 C 11,1 C 11,1 C 90 % 0 lf 84 cb 47 cb 46 cb 10 cb 1020,4 hPa 0,0 l/m 4,5 km/h (1 Bft) NW 306 0 min 0,000 mm 1,7 UV-I 278 W/m 8,1 C 9,7 C 11,3 km/h (2 Bft)
22.05.2019 10:42 9,5 C 12,8 C 11,7 C 11,1 C 10,6 C 90 % 0 lf 84 cb 47 cb 46 cb 10 cb 1020,4 hPa 0,0 l/m 2,7 km/h (1 Bft) NW 321 2 min 0,000 mm 2,0 UV-I 800 W/m 7,9 C 9,5 C 8,0 km/h (2 Bft)
22.05.2019 10:40 9,2 C 12,2 C 11,7 C 11,1 C 10,6 C 90 % 0 lf 84 cb 48 cb 46 cb 10 cb 1020,3 hPa 0,0 l/m 2,5 km/h (1 Bft) NW 319 2 min 0,000 mm 3,7 UV-I 800 W/m 7,6 C 9,2 C 11,3 km/h (2 Bft)
22.05.2019 10:38 9,1 C 12,2 C 11,7 C 11,1 C 10,6 C 89 % 0 lf 84 cb 48 cb 46 cb 10 cb 1020,3 hPa 0,0 l/m 5,2 km/h (1 Bft) NW 321 2 min 0,000 mm 3,5 UV-I 728 W/m 7,4 C 9,1 C 11,3 km/h (2 Bft)
22.05.2019 10:36 9,0 C 12,2 C 11,7 C 11,1 C 10,6 C 90 % 0 lf 84 cb 48 cb 46 cb 10 cb 1020,4 hPa 0,0 l/m 7,2 km/h (2 Bft) NW 304 0 min 0,000 mm 2,1 UV-I 197 W/m 7,4 C 8,4 C 14,5 km/h (3 Bft)
22.05.2019 10:34 8,9 C 12,8 C 11,7 C 11,1 C 10,6 C 90 % 0 lf 84 cb 48 cb 46 cb 10 cb 1020,4 hPa 0,0 l/m 2,5 km/h (1 Bft) W-NW 297 0 min 0,000 mm 1,5 UV-I 167 W/m 7,4 C 8,9 C 14,5 km/h (3 Bft)
22.05.2019 10:32 8,9 C 12,2 C 11,7 C 11,1 C 10,6 C 90 % 0 lf 84 cb 48 cb 46 cb 10 cb 1020,4 hPa 0,0 l/m 6,2 km/h (2 Bft) W-NW 298 2 min 0,000 mm 2,1 UV-I 394 W/m 7,4 C 8,9 C 9,7 km/h (2 Bft)
22.05.2019 10:30 8,8 C 12,2 C 11,7 C 11,1 C 10,6 C 90 % 0 lf 84 cb 48 cb 46 cb 10 cb 1020,4 hPa 0,0 l/m 6,3 km/h (2 Bft) W-NW 295 0 min 0,000 mm 1,9 UV-I 279 W/m 7,3 C 8,8 C 9,7 km/h (2 Bft)
22.05.2019 10:28 8,8 C 12,2 C 11,7 C 11,1 C 10,6 C 89 % 0 lf 84 cb 48 cb 46 cb 10 cb 1020,4 hPa 0,0 l/m 6,8 km/h (2 Bft) W-NW 295 0 min 0,000 mm 1,2 UV-I 211 W/m 7,1 C 8,5 C 16,1 km/h (3 Bft)
22.05.2019 10:26 8,8 C 12,2 C 11,7 C 11,1 C 10,6 C 90 % 0 lf 84 cb 48 cb 46 cb 10 cb 1020,4 hPa 0,0 l/m 8,3 km/h (2 Bft) W-NW 287 0 min 0,000 mm 1,3 UV-I 243 W/m 7,3 C 7,4 C 17,7 km/h (3 Bft)
22.05.2019 10:24 8,9 C 11,7 C 11,7 C 11,1 C 10,6 C 90 % 0 lf 84 cb 48 cb 46 cb 10 cb 1020,4 hPa 0,0 l/m 8,8 km/h (2 Bft) W-NW 295 0 min 0,000 mm 1,3 UV-I 251 W/m 7,4 C 7,1 C 17,7 km/h (3 Bft)
22.05.2019 10:22 8,9 C 12,2 C 11,7 C 11,1 C 10,6 C 91 % 0 lf 84 cb 48 cb 46 cb 10 cb 1020,3 hPa 0,0 l/m 6,7 km/h (2 Bft) NW 307 0 min 0,000 mm 0,9 UV-I 183 W/m 7,5 C 8,7 C 11,3 km/h (2 Bft)
22.05.2019 10:20 8,8 C 12,2 C 11,7 C 11,1 C 10,6 C 91 % 0 lf 84 cb 48 cb 46 cb 10 cb 1020,2 hPa 0,0 l/m 5,6 km/h (1 Bft) W-NW 300 0 min 0,000 mm 1,0 UV-I 214 W/m 7,4 C 8,8 C 12,9 km/h (3 Bft)
22.05.2019 10:18 8,8 C 12,2 C 11,7 C 11,1 C 10,6 C 91 % 0 lf 84 cb 48 cb 46 cb 10 cb 1020,2 hPa 0,0 l/m 7,6 km/h (2 Bft) NW 317 0 min 0,000 mm 1,2 UV-I 230 W/m 7,4 C 7,9 C 11,3 km/h (2 Bft)
22.05.2019 10:16 8,7 C 12,2 C 11,7 C 11,1 C 10,6 C 91 % 0 lf 84 cb 48 cb 46 cb 10 cb 1020,2 hPa 0,0 l/m 5,7 km/h (1 Bft) N-NW 330 0 min 0,000 mm 1,4 UV-I 253 W/m 7,3 C 8,7 C 14,5 km/h (3 Bft)
22.05.2019 10:14 8,7 C 11,7 C 11,7 C 11,1 C 10,6 C 91 % 0 lf 84 cb 48 cb 46 cb 10 cb 1020,1 hPa 0,0 l/m 6,3 km/h (2 Bft) W-NW 300 0 min 0,000 mm 1,9 UV-I 264 W/m 7,3 C 8,7 C 16,1 km/h (3 Bft)
22.05.2019 10:12 8,7 C 11,7 C 11,7 C 11,1 C 10,6 C 91 % 0 lf 84 cb 48 cb 46 cb 10 cb 1020,2 hPa 0,0 l/m 6,0 km/h (2 Bft) NW 311 0 min 0,000 mm 1,6 UV-I 264 W/m 7,3 C 8,7 C 14,5 km/h (3 Bft)
22.05.2019 10:10 8,7 C 11,7 C 11,7 C 11,1 C 10,6 C 91 % 0 lf 84 cb 48 cb 46 cb 10 cb 1020,1 hPa 0,0 l/m 4,8 km/h (1 Bft) W-NW 299 0 min 0,000 mm 1,1 UV-I 199 W/m 7,3 C 8,7 C 11,3 km/h (2 Bft)
22.05.2019 10:08 8,6 C 11,7 C 11,7 C 11,1 C 10,6 C 91 % 0 lf 84 cb 48 cb 46 cb 10 cb 1020,2 hPa 0,0 l/m 6,1 km/h (2 Bft) W-NW 300 0 min 0,000 mm 1,3 UV-I 246 W/m 7,2 C 8,6 C 14,5 km/h (3 Bft)
22.05.2019 10:06 8,6 C 11,7 C 11,7 C 11,1 C 10,6 C 91 % 0 lf 84 cb 48 cb 46 cb 10 cb 1020,2 hPa 0,0 l/m 1,3 km/h (1 Bft) W-NW 300 0 min 0,000 mm 1,0 UV-I 172 W/m 7,2 C 8,6 C 8,0 km/h (2 Bft)
22.05.2019 10:04 8,6 C 11,7 C 11,1 C 11,1 C 10,6 C 92 % 0 lf 84 cb 47 cb 46 cb 10 cb 1020,2 hPa 0,0 l/m 1,8 km/h (1 Bft) W-NW 299 0 min 0,000 mm 0,9 UV-I 192 W/m 7,4 C 8,6 C 8,0 km/h (2 Bft)
22.05.2019 10:02 8,5 C 11,7 C 11,1 C 11,1 C 10,6 C 92 % 0 lf 84 cb 47 cb 46 cb 10 cb 1020,2 hPa 0,2 l/m 2,8 km/h (1 Bft) W-NW 299 0 min 0,000 mm 1,1 UV-I 244 W/m 7,3 C 8,5 C 6,4 km/h (2 Bft)
22.05.2019 10:00 8,5 C 11,1 C 11,1 C 11,1 C 10,6 C 92 % 0 lf 83 cb 47 cb 46 cb 10 cb 1020,1 hPa 0,0 l/m 4,9 km/h (1 Bft) W-NW 299 0 min 0,076 mm 1,1 UV-I 204 W/m 7,3 C 8,5 C 14,5 km/h (3 Bft)
22.05.2019 09:58 8,4 C 11,1 C 11,1 C 11,1 C 10,6 C 92 % 0 lf 83 cb 47 cb 46 cb 10 cb 1020,2 hPa 0,0 l/m 5,8 km/h (2 Bft) W-NW 300 0 min 0,000 mm 0,9 UV-I 172 W/m 7,2 C 8,4 C 14,5 km/h (3 Bft)
22.05.2019 09:56 8,4 C 11,1 C 11,1 C 11,1 C 10,6 C 92 % 0 lf 83 cb 47 cb 46 cb 10 cb 1020,1 hPa 0,0 l/m 2,6 km/h (1 Bft) NW 309 0 min 0,000 mm 1,0 UV-I 213 W/m 7,2 C 8,4 C 9,7 km/h (2 Bft)
22.05.2019 09:54 8,4 C 11,7 C 11,1 C 11,1 C 10,6 C 92 % 0 lf 84 cb 47 cb 46 cb 10 cb 1020,1 hPa 0,0 l/m 4,2 km/h (1 Bft) NW 309 0 min 0,000 mm 0,9 UV-I 149 W/m 7,2 C 8,4 C 16,1 km/h (3 Bft)
22.05.2019 09:52 8,4 C 11,7 C 11,1 C 11,1 C 10,6 C 93 % 0 lf 84 cb 47 cb 46 cb 10 cb 1020,1 hPa 0,0 l/m 5,8 km/h (2 Bft) W-NW 294 0 min 0,000 mm 0,8 UV-I 165 W/m 7,3 C 8,4 C 11,3 km/h (2 Bft)
22.05.2019 09:50 8,3 C 11,7 C 11,1 C 11,1 C 10,6 C 92 % 0 lf 84 cb 47 cb 46 cb 10 cb 1020,1 hPa 0,0 l/m 1,3 km/h (1 Bft) W-NW 302 0 min 0,000 mm 0,9 UV-I 186 W/m 7,1 C 8,3 C 9,7 km/h (2 Bft)
22.05.2019 09:48 8,3 C 11,7 C 11,1 C 11,1 C 10,6 C 93 % 0 lf 84 cb 47 cb 46 cb 10 cb 1020,1 hPa 0,0 l/m 2,8 km/h (1 Bft) W-NW 302 0 min 0,000 mm 0,8 UV-I 188 W/m 7,2 C 8,3 C 9,7 km/h (2 Bft)
22.05.2019 09:46 8,3 C 11,7 C 11,1 C 11,1 C 10,6 C 93 % 0 lf 84 cb 47 cb 46 cb 10 cb 1020,1 hPa 0,0 l/m 8,9 km/h (2 Bft) W-NW 302 0 min 0,000 mm 1,1 UV-I 248 W/m 7,2 C 6,4 C 16,1 km/h (3 Bft)
22.05.2019 09:44 8,3 C 11,1 C 11,1 C 11,1 C 10,6 C 93 % 0 lf 83 cb 47 cb 46 cb 10 cb 1020,1 hPa 0,0 l/m 8,5 km/h (2 Bft) NW 312 0 min 0,000 mm 1,1 UV-I 243 W/m 7,2 C 6,7 C 14,5 km/h (3 Bft)
22.05.2019 09:42 8,2 C 11,1 C 11,1 C 11,1 C 10,6 C 93 % 0 lf 83 cb 47 cb 46 cb 10 cb 1020,0 hPa 0,0 l/m 9,3 km/h (2 Bft) W-NW 286 0 min 0,000 mm 1,0 UV-I 197 W/m 7,1 C 6,1 C 17,7 km/h (3 Bft)
22.05.2019 09:40 8,2 C 11,1 C 11,1 C 11,1 C 10,6 C 93 % 0 lf 83 cb 47 cb 46 cb 10 cb 1020,0 hPa 0,0 l/m 8,2 km/h (2 Bft) NW 315 0 min 0,000 mm 1,0 UV-I 218 W/m 7,1 C 6,8 C 17,7 km/h (3 Bft)
22.05.2019 09:38 8,2 C 11,1 C 11,1 C 11,1 C 10,6 C 93 % 0 lf 83 cb 47 cb 46 cb 10 cb 1020,0 hPa 0,0 l/m 8,0 km/h (2 Bft) W-NW 301 0 min 0,000 mm 0,9 UV-I 211 W/m 7,1 C 7,0 C 14,5 km/h (3 Bft)
22.05.2019 09:36 8,2 C 11,1 C 11,1 C 11,1 C 10,6 C 93 % 0 lf 83 cb 47 cb 46 cb 10 cb 1020,0 hPa 0,0 l/m 4,9 km/h (1 Bft) NW 308 0 min 0,000 mm 0,8 UV-I 176 W/m 7,1 C 8,2 C 16,1 km/h (3 Bft)
22.05.2019 09:34 8,2 C 11,1 C 11,1 C 11,1 C 10,6 C 94 % 0 lf 84 cb 47 cb 46 cb 10 cb 1020,0 hPa 0,0 l/m 6,3 km/h (2 Bft) W-NW 300 0 min 0,000 mm 0,7 UV-I 183 W/m 7,3 C 8,2 C 11,3 km/h (2 Bft)
22.05.2019 09:32 8,1 C 11,1 C 11,1 C 11,1 C 10,6 C 94 % 0 lf 84 cb 47 cb 46 cb 10 cb 1020,1 hPa 0,0 l/m 3,1 km/h (1 Bft) W-NW 302 0 min 0,000 mm 0,5 UV-I 155 W/m 7,2 C 8,1 C 14,5 km/h (3 Bft)
22.05.2019 09:30 8,1 C 11,1 C 11,1 C 11,1 C 10,6 C 94 % 0 lf 84 cb 47 cb 46 cb 10 cb 1020,1 hPa 0,0 l/m 4,1 km/h (1 Bft) W-NW 294 0 min 0,000 mm 0,6 UV-I 149 W/m 7,2 C 8,1 C 9,7 km/h (2 Bft)
22.05.2019 09:28 8,1 C 10,6 C 11,1 C 11,1 C 10,6 C 94 % 0 lf 83 cb 47 cb 46 cb 10 cb 1020,0 hPa 0,0 l/m 5,5 km/h (1 Bft) W-NW 291 0 min 0,000 mm 0,7 UV-I 188 W/m 7,2 C 8,1 C 11,3 km/h (2 Bft)
22.05.2019 09:26 8,1 C 10,6 C 11,1 C 11,1 C 10,6 C 94 % 0 lf 83 cb 47 cb 46 cb 10 cb 1020,0 hPa 0,0 l/m 3,2 km/h (1 Bft) W-NW 285 0 min 0,000 mm 0,7 UV-I 169 W/m 7,2 C 8,1 C 17,7 km/h (3 Bft)
22.05.2019 09:24 8,1 C 10,6 C 11,1 C 11,1 C 10,6 C 94 % 0 lf 83 cb 48 cb 46 cb 10 cb 1020,0 hPa 0,0 l/m 4,2 km/h (1 Bft) W-NW 291 0 min 0,000 mm 0,6 UV-I 156 W/m 7,2 C 8,1 C 12,9 km/h (3 Bft)
22.05.2019 09:22 8,1 C 10,6 C 11,1 C 11,1 C 10,6 C 94 % 0 lf 84 cb 48 cb 46 cb 10 cb 1020,0 hPa 0,0 l/m 9,4 km/h (2 Bft) NW 305 0 min 0,000 mm 0,6 UV-I 149 W/m 7,2 C 5,9 C 20,9 km/h (4 Bft)
22.05.2019 09:20 8,1 C 10,6 C 11,1 C 11,1 C 10,6 C 95 % 0 lf 84 cb 48 cb 46 cb 10 cb 1020,0 hPa 0,0 l/m 5,8 km/h (2 Bft) W-NW 302 0 min 0,000 mm 0,5 UV-I 148 W/m 7,3 C 8,1 C 9,7 km/h (2 Bft)
22.05.2019 09:18 8,1 C 10,6 C 10,6 C 11,1 C 10,6 C 95 % 0 lf 83 cb 47 cb 46 cb 10 cb 1019,9 hPa 0,0 l/m 9,0 km/h (2 Bft) W 268 0 min 0,000 mm 0,0 UV-I 148 W/m 7,3 C 6,1 C 22,5 km/h (4 Bft)
22.05.2019 09:16 8,1 C 10,6 C 10,6 C 11,1 C 10,6 C 95 % 0 lf 83 cb 47 cb 46 cb 10 cb 1019,9 hPa 0,0 l/m 2,9 km/h (1 Bft) NW 318 0 min 0,000 mm 0,5 UV-I 165 W/m 7,3 C 8,1 C 9,7 km/h (2 Bft)
22.05.2019 09:14 8,0 C 10,6 C 10,6 C 10,6 C 10,6 C 95 % 0 lf 83 cb 47 cb 46 cb 10 cb 1019,9 hPa 0,0 l/m 1,3 km/h (1 Bft) W-NW 293 0 min 0,000 mm 0,0 UV-I 132 W/m 7,2 C 8,0 C 6,4 km/h (2 Bft)
22.05.2019 09:12 7,9 C 10,6 C 10,6 C 10,6 C 10,6 C 95 % 0 lf 83 cb 47 cb 46 cb 10 cb 1019,9 hPa 0,0 l/m 0,2 km/h (0 Bft) W-NW 291 0 min 0,000 mm 0,5 UV-I 162 W/m 7,1 C 7,9 C 1,6 km/h (1 Bft)
22.05.2019 09:10 7,8 C 10,6 C 10,6 C 10,6 C 10,6 C 95 % 0 lf 84 cb 47 cb 46 cb 10 cb 1019,9 hPa 0,0 l/m 7,6 km/h (2 Bft) W-NW 291 0 min 0,000 mm 0,5 UV-I 151 W/m 7,0 C 6,8 C 16,1 km/h (3 Bft)
22.05.2019 09:08 7,8 C 10,6 C 10,6 C 10,6 C 10,6 C 95 % 0 lf 84 cb 47 cb 46 cb 10 cb 1019,8 hPa 0,0 l/m 3,0 km/h (1 Bft) W-NW 302 0 min 0,000 mm 0,5 UV-I 171 W/m 7,0 C 7,8 C 9,7 km/h (2 Bft)
22.05.2019 09:06 7,8 C 10,6 C 10,6 C 10,6 C 10,6 C 95 % 0 lf 84 cb 47 cb 46 cb 10 cb 1019,9 hPa 0,0 l/m 3,7 km/h (1 Bft) W-NW 302 0 min 0,000 mm 0,5 UV-I 162 W/m 7,0 C 7,8 C 14,5 km/h (3 Bft)
22.05.2019 09:04 7,8 C 10,0 C 10,6 C 10,6 C 10,6 C 96 % 0 lf 83 cb 47 cb 46 cb 10 cb 1019,8 hPa 0,0 l/m 1,9 km/h (1 Bft) NW 309 0 min 0,000 mm 0,6 UV-I 162 W/m 7,2 C 7,8 C 4,8 km/h (1 Bft)
22.05.2019 09:02 7,8 C 10,0 C 10,6 C 10,6 C 10,6 C 96 % 0 lf 83 cb 47 cb 46 cb 10 cb 1019,8 hPa 0,0 l/m 3,5 km/h (1 Bft) NW 309 0 min 0,000 mm 0,7 UV-I 165 W/m 7,2 C 7,8 C 14,5 km/h (3 Bft)
22.05.2019 09:00 7,8 C 10,0 C 10,6 C 10,6 C 10,6 C 95 % 0 lf 83 cb 47 cb 46 cb 10 cb 1019,8 hPa 0,0 l/m 7,3 km/h (2 Bft) NW 317 0 min 0,051 mm 0,6 UV-I 118 W/m 7,0 C 7,1 C 14,5 km/h (3 Bft)
22.05.2019 08:58 7,8 C 10,0 C 10,6 C 10,6 C 10,6 C 96 % 0 lf 83 cb 47 cb 46 cb 10 cb 1019,8 hPa 0,0 l/m 6,7 km/h (2 Bft) W-NW 302 0 min 0,000 mm 0,5 UV-I 137 W/m 7,2 C 7,6 C 11,3 km/h (2 Bft)
22.05.2019 08:56 7,8 C 10,6 C 10,6 C 10,6 C 10,6 C 96 % 0 lf 84 cb 47 cb 46 cb 10 cb 1019,8 hPa 0,0 l/m 8,3 km/h (2 Bft) NW 306 0 min 0,000 mm 0,0 UV-I 142 W/m 7,2 C 6,3 C 16,1 km/h (3 Bft)
22.05.2019 08:54 7,8 C 10,6 C 10,6 C 10,6 C 10,6 C 96 % 0 lf 84 cb 47 cb 46 cb 10 cb 1019,8 hPa 0,0 l/m 9,9 km/h (2 Bft) W-NW 299 0 min 0,000 mm 0,5 UV-I 153 W/m 7,2 C 5,2 C 22,5 km/h (4 Bft)
22.05.2019 08:52 7,7 C 10,6 C 10,6 C 10,6 C 10,6 C 96 % 0 lf 84 cb 47 cb 46 cb 10 cb 1019,8 hPa 0,0 l/m 6,0 km/h (2 Bft) W-NW 303 0 min 0,000 mm 0,6 UV-I 195 W/m 7,1 C 7,7 C 16,1 km/h (3 Bft)
22.05.2019 08:50 7,7 C 10,6 C 10,6 C 10,6 C 10,6 C 96 % 0 lf 83 cb 47 cb 46 cb 10 cb 1019,8 hPa 0,0 l/m 5,1 km/h (1 Bft) NW 304 0 min 0,000 mm 0,5 UV-I 142 W/m 7,1 C 7,7 C 14,5 km/h (3 Bft)
22.05.2019 08:48 7,7 C 10,6 C 10,6 C 10,6 C 10,6 C 96 % 0 lf 84 cb 47 cb 46 cb 10 cb 1019,8 hPa 0,0 l/m 7,2 km/h (2 Bft) NW 304 0 min 0,000 mm 0,0 UV-I 144 W/m 7,1 C 7,1 C 14,5 km/h (3 Bft)
22.05.2019 08:46 7,7 C 10,6 C 10,6 C 10,6 C 10,6 C 96 % 0 lf 84 cb 47 cb 46 cb 10 cb 1019,8 hPa 0,0 l/m 4,1 km/h (1 Bft) N-NW 328 0 min 0,000 mm 0,5 UV-I 190 W/m 7,1 C 7,7 C 9,7 km/h (2 Bft)
22.05.2019 08:44 7,6 C 10,0 C 10,6 C 10,6 C 10,6 C 97 % 0 lf 83 cb 47 cb 46 cb 10 cb 1019,7 hPa 0,0 l/m 3,8 km/h (1 Bft) W-NW 297 0 min 0,000 mm 0,5 UV-I 179 W/m 7,2 C 7,6 C 9,7 km/h (2 Bft)
22.05.2019 08:42 7,6 C 10,0 C 10,6 C 10,6 C 10,6 C 96 % 0 lf 83 cb 47 cb 46 cb 10 cb 1019,7 hPa 0,0 l/m 5,0 km/h (1 Bft) NW 313 0 min 0,000 mm 0,5 UV-I 149 W/m 7,0 C 7,6 C 9,7 km/h (2 Bft)
22.05.2019 08:40 7,6 C 10,0 C 10,6 C 10,6 C 10,6 C 96 % 0 lf 84 cb 47 cb 46 cb 10 cb 1019,7 hPa 0,0 l/m 5,9 km/h (2 Bft) N-NW 329 0 min 0,000 mm 0,5 UV-I 178 W/m 7,0 C 7,6 C 11,3 km/h (2 Bft)
22.05.2019 08:38 7,5 C 10,0 C 10,6 C 10,6 C 10,6 C 96 % 0 lf 84 cb 47 cb 46 cb 10 cb 1019,7 hPa 0,0 l/m 3,8 km/h (1 Bft) NW 319 0 min 0,000 mm 0,0 UV-I 155 W/m 6,9 C 7,5 C 8,0 km/h (2 Bft)
22.05.2019 08:36 7,4 C 9,4 C 10,0 C 10,6 C 10,6 C 97 % 0 lf 83 cb 47 cb 46 cb 10 cb 1019,8 hPa 0,0 l/m 0,8 km/h (0 Bft) N-NW 330 0 min 0,000 mm 0,0 UV-I 130 W/m 7,0 C 7,4 C 4,8 km/h (1 Bft)
22.05.2019 08:34 7,4 C 9,4 C 10,0 C 10,6 C 10,6 C 97 % 0 lf 83 cb 47 cb 46 cb 10 cb 1019,8 hPa 0,0 l/m 3,6 km/h (1 Bft) N-NW 330 0 min 0,000 mm 0,0 UV-I 127 W/m 7,0 C 7,4 C 6,4 km/h (2 Bft)
22.05.2019 08:32 7,4 C 9,4 C 10,0 C 10,6 C 10,6 C 97 % 0 lf 83 cb 47 cb 46 cb 10 cb 1019,7 hPa 0,0 l/m 3,0 km/h (1 Bft) N-NW 331 0 min 0,000 mm 0,0 UV-I 137 W/m 7,0 C 7,4 C 11,3 km/h (2 Bft)
22.05.2019 08:30 7,3 C 9,4 C 10,0 C 10,6 C 10,6 C 97 % 0 lf 84 cb 47 cb 46 cb 10 cb 1019,7 hPa 0,0 l/m 3,0 km/h (1 Bft) W-NW 294 0 min 0,000 mm 0,0 UV-I 165 W/m 6,9 C 7,3 C 8,0 km/h (2 Bft)
22.05.2019 08:28 7,3 C 9,4 C 10,0 C 10,6 C 10,6 C 97 % 0 lf 84 cb 47 cb 46 cb 10 cb 1019,7 hPa 0,0 l/m 4,6 km/h (1 Bft) W-NW 296 0 min 0,000 mm 0,0 UV-I 120 W/m 6,9 C 7,3 C 9,7 km/h (2 Bft)
22.05.2019 08:26 7,3 C 9,4 C 10,0 C 10,6 C 10,6 C 97 % 0 lf 84 cb 47 cb 46 cb 10 cb 1019,7 hPa 0,0 l/m 7,0 km/h (2 Bft) W-NW 296 0 min 0,000 mm 0,0 UV-I 156 W/m 6,9 C 6,8 C 20,9 km/h (4 Bft)
22.05.2019 08:24 7,2 C 9,4 C 10,0 C 10,6 C 10,6 C 97 % 0 lf 84 cb 47 cb 46 cb 10 cb 1019,7 hPa 0,0 l/m 11,4 km/h (2 Bft) W-NW 298 0 min 0,000 mm 0,0 UV-I 118 W/m 6,8 C 3,6 C 19,3 km/h (3 Bft)
22.05.2019 08:22 7,2 C 8,9 C 10,0 C 10,6 C 10,6 C 97 % 0 lf 83 cb 47 cb 46 cb 10 cb 1019,7 hPa 0,0 l/m 3,4 km/h (1 Bft) W-NW 294 0 min 0,000 mm 0,0 UV-I 142 W/m 6,8 C 7,2 C 9,7 km/h (2 Bft)
22.05.2019 08:20 7,2 C 8,9 C 10,0 C 10,6 C 10,6 C 97 % 0 lf 83 cb 47 cb 46 cb 10 cb 1019,7 hPa 0,0 l/m 5,9 km/h (2 Bft) W-NW 299 0 min 0,000 mm 0,0 UV-I 144 W/m 6,8 C 7,2 C 16,1 km/h (3 Bft)
22.05.2019 08:18 7,2 C 8,9 C 10,0 C 10,6 C 10,6 C 97 % 0 lf 83 cb 47 cb 46 cb 10 cb 1019,7 hPa 0,0 l/m 0,0 km/h (0 Bft) W-NW 294 0 min 0,000 mm 0,0 UV-I 149 W/m 6,8 C 7,2 C 0,0 km/h (0 Bft)
22.05.2019 08:17 7,2 C 8,3 C 10,0 C 10,6 C 10,6 C 97 % 0 lf 83 cb 47 cb 46 cb 10 cb 1019,7 hPa 0,0 l/m 2,2 km/h (1 Bft) W-NW 294 0 min 0,000 mm 0,0 UV-I 142 W/m 6,8 C 7,2 C 6,4 km/h (2 Bft)
22.05.2019 08:16 7,2 C 8,3 C 10,0 C 10,6 C 10,6 C 97 % 0 lf 83 cb 47 cb 46 cb 10 cb 1019,7 hPa 0,0 l/m 5,2 km/h (1 Bft) W-NW 294 0 min 0,000 mm 0,0 UV-I 135 W/m 6,8 C 7,2 C 9,7 km/h (2 Bft)
22.05.2019 08:14 7,2 C 8,3 C 10,0 C 10,6 C 10,6 C 97 % 0 lf 83 cb 47 cb 46 cb 10 cb 1019,7 hPa 0,0 l/m 4,6 km/h (1 Bft) W-NW 294 0 min 0,000 mm 0,0 UV-I 137 W/m 6,8 C 7,2 C 6,4 km/h (2 Bft)
22.05.2019 08:13 7,2 C 8,3 C 10,0 C 10,6 C 10,6 C 97 % 0 lf 83 cb 47 cb 46 cb 10 cb 1019,6 hPa 0,0 l/m 10,9 km/h (2 Bft) W-NW 294 0 min 0,000 mm 0,0 UV-I 109 W/m 6,8 C 3,9 C 17,7 km/h (3 Bft)
22.05.2019 08:12 7,2 C 8,3 C 10,0 C 10,6 C 10,6 C 97 % 0 lf 83 cb 47 cb 46 cb 10 cb 1019,6 hPa 0,0 l/m 12,2 km/h (2 Bft) W-NW 297 0 min 0,000 mm 0,0 UV-I 79 W/m 6,8 C 3,2 C 22,5 km/h (4 Bft)
22.05.2019 08:11 7,2 C 8,3 C 10,0 C 10,6 C 10,6 C 97 % 0 lf 82 cb 47 cb 46 cb 10 cb 1019,6 hPa 0,0 l/m 3,7 km/h (1 Bft) W-NW 303 0 min 0,000 mm 0,0 UV-I 86 W/m 6,8 C 7,2 C 11,3 km/h (2 Bft)
22.05.2019 08:09 7,2 C 8,3 C 10,0 C 10,6 C 10,6 C 97 % 0 lf 83 cb 47 cb 46 cb 10 cb 1019,6 hPa 0,0 l/m 9,1 km/h (2 Bft) W-NW 303 0 min 0,000 mm 0,0 UV-I 88 W/m 6,8 C 5,1 C 16,1 km/h (3 Bft)
22.05.2019 08:07 7,2 C 8,3 C 10,0 C 10,6 C 10,6 C 97 % 0 lf 83 cb 47 cb 46 cb 10 cb 1019,6 hPa 0,0 l/m 7,1 km/h (2 Bft) NW 319 0 min 0,000 mm 0,0 UV-I 97 W/m 6,8 C 6,6 C 11,3 km/h (2 Bft)
22.05.2019 08:05 7,2 C 8,3 C 10,0 C 10,6 C 10,6 C 97 % 0 lf 83 cb 47 cb 46 cb 10 cb 1019,6 hPa 0,0 l/m 10,4 km/h (2 Bft) W-NW 298 0 min 0,000 mm 0,0 UV-I 74 W/m 6,8 C 4,2 C 20,9 km/h (4 Bft)
22.05.2019 08:03 7,2 C 8,3 C 10,0 C 10,6 C 10,6 C 97 % 0 lf 83 cb 47 cb 46 cb 10 cb 1019,5 hPa 0,0 l/m 9,7 km/h (2 Bft) W 279 0 min 0,000 mm 0,0 UV-I 72 W/m 6,8 C 4,7 C 17,7 km/h (3 Bft)
22.05.2019 08:01 7,2 C 8,3 C 10,0 C 10,6 C 10,6 C 97 % 0 lf 82 cb 47 cb 46 cb 10 cb 1019,5 hPa 0,0 l/m 4,1 km/h (1 Bft) W-NW 303 0 min 0,026 mm 0,0 UV-I 60 W/m 6,8 C 7,2 C 8,0 km/h (2 Bft)
22.05.2019 07:59 7,2 C 8,3 C 10,0 C 10,6 C 10,6 C 97 % 0 lf 83 cb 47 cb 46 cb 10 cb 1019,5 hPa 0,0 l/m 9,1 km/h (2 Bft) W-NW 302 0 min 0,000 mm 0,0 UV-I 62 W/m 6,8 C 5,1 C 19,3 km/h (3 Bft)
22.05.2019 07:57 7,2 C 8,3 C 10,0 C 10,6 C 10,6 C 97 % 0 lf 83 cb 47 cb 46 cb 10 cb 1019,5 hPa 0,0 l/m 3,9 km/h (1 Bft) N-NW 329 0 min 0,000 mm 0,0 UV-I 32 W/m 6,8 C 7,2 C 9,7 km/h (2 Bft)
22.05.2019 07:55 7,2 C 8,3 C 10,0 C 10,6 C 10,6 C 97 % 0 lf 83 cb 47 cb 46 cb 10 cb 1019,5 hPa 0,0 l/m 4,2 km/h (1 Bft) W-NW 302 0 min 0,000 mm 0,0 UV-I 53 W/m 6,8 C 7,2 C 6,4 km/h (2 Bft)
22.05.2019 07:53 7,2 C 8,3 C 10,0 C 10,6 C 10,6 C 97 % 0 lf 83 cb 47 cb 46 cb 10 cb 1019,5 hPa 0,0 l/m 6,3 km/h (2 Bft) W-NW 301 0 min 0,000 mm 0,0 UV-I 58 W/m 6,8 C 7,2 C 9,7 km/h (2 Bft)
22.05.2019 07:51 7,2 C 8,3 C 10,0 C 10,6 C 10,6 C 97 % 0 lf 83 cb 47 cb 46 cb 10 cb 1019,5 hPa 0,0 l/m 5,4 km/h (1 Bft) NW 304 0 min 0,000 mm 0,0 UV-I 72 W/m 6,8 C 7,2 C 9,7 km/h (2 Bft)
22.05.2019 07:49 7,2 C 8,3 C 10,0 C 10,6 C 10,6 C 97 % 0 lf 83 cb 47 cb 46 cb 10 cb 1019,5 hPa 0,0 l/m 8,6 km/h (2 Bft) W-NW 300 0 min 0,000 mm 0,0 UV-I 58 W/m 6,8 C 5,5 C 16,1 km/h (3 Bft)
22.05.2019 07:47 7,2 C 8,3 C 10,0 C 10,6 C 10,6 C 97 % 0 lf 83 cb 47 cb 46 cb 10 cb 1019,5 hPa 0,2 l/m 7,1 km/h (2 Bft) NW 306 0 min 0,000 mm 0,0 UV-I 53 W/m 6,8 C 6,6 C 16,1 km/h (3 Bft)
22.05.2019 07:45 7,2 C 8,3 C 10,0 C 10,6 C 10,6 C 97 % 0 lf 83 cb 47 cb 46 cb 10 cb 1019,4 hPa 0,0 l/m 3,8 km/h (1 Bft) W-NW 301 0 min 0,000 mm 0,0 UV-I 54 W/m 6,8 C 7,2 C 12,9 km/h (3 Bft)
22.05.2019 07:43 7,1 C 8,3 C 10,0 C 10,6 C 10,6 C 97 % 0 lf 83 cb 47 cb 46 cb 10 cb 1019,4 hPa 0,0 l/m 6,2 km/h (2 Bft) NW 308 0 min 0,000 mm 0,0 UV-I 69 W/m 6,7 C 7,1 C 11,3 km/h (2 Bft)
22.05.2019 07:41 7,1 C 8,3 C 10,0 C 10,6 C 10,6 C 97 % 0 lf 83 cb 47 cb 46 cb 10 cb 1019,4 hPa 0,0 l/m 7,1 km/h (2 Bft) NW 305 0 min 0,000 mm 0,0 UV-I 72 W/m 6,7 C 6,5 C 14,5 km/h (3 Bft)
22.05.2019 07:39 7,1 C 8,3 C 10,0 C 10,6 C 10,6 C 97 % 0 lf 83 cb 47 cb 46 cb 10 cb 1019,4 hPa 0,0 l/m 6,8 km/h (2 Bft) NW 306 0 min 0,000 mm 0,0 UV-I 60 W/m 6,7 C 6,8 C 16,1 km/h (3 Bft)
22.05.2019 07:37 7,1 C 8,3 C 9,4 C 10,6 C 10,6 C 97 % 0 lf 83 cb 47 cb 46 cb 10 cb 1019,4 hPa 0,0 l/m 4,7 km/h (1 Bft) NW 306 0 min 0,000 mm 0,0 UV-I 54 W/m 6,7 C 7,1 C 9,7 km/h (2 Bft)
22.05.2019 07:35 7,1 C 8,3 C 9,4 C 10,6 C 10,6 C 97 % 0 lf 83 cb 47 cb 46 cb 10 cb 1019,3 hPa 0,0 l/m 3,5 km/h (1 Bft) W-NW 303 0 min 0,000 mm 0,0 UV-I 53 W/m 6,7 C 7,1 C 8,0 km/h (2 Bft)
22.05.2019 07:33 7,0 C 8,3 C 9,4 C 10,6 C 10,6 C 97 % 0 lf 83 cb 47 cb 46 cb 10 cb 1019,3 hPa 0,0 l/m 6,6 km/h (2 Bft) W-NW 303 0 min 0,000 mm 0,0 UV-I 63 W/m 6,6 C 6,9 C 14,5 km/h (3 Bft)
22.05.2019 07:31 6,9 C 8,3 C 9,4 C 10,6 C 10,6 C 97 % 0 lf 83 cb 47 cb 46 cb 10 cb 1019,3 hPa 0,0 l/m 5,6 km/h (1 Bft) W-NW 296 0 min 0,000 mm 0,0 UV-I 70 W/m 6,5 C 6,9 C 9,7 km/h (2 Bft)
22.05.2019 07:29 6,9 C 8,3 C 9,4 C 10,6 C 10,6 C 97 % 0 lf 83 cb 47 cb 46 cb 10 cb 1019,4 hPa 0,0 l/m 7,3 km/h (2 Bft) W-NW 295 0 min 0,000 mm 0,0 UV-I 83 W/m 6,5 C 6,2 C 14,5 km/h (3 Bft)
22.05.2019 07:27 6,9 C 8,3 C 9,4 C 10,6 C 10,6 C 97 % 0 lf 83 cb 47 cb 46 cb 10 cb 1019,3 hPa 0,0 l/m 5,7 km/h (1 Bft) W-NW 299 0 min 0,000 mm 0,0 UV-I 97 W/m 6,5 C 6,9 C 9,7 km/h (2 Bft)
22.05.2019 07:25 6,9 C 8,3 C 9,4 C 10,6 C 10,6 C 97 % 0 lf 83 cb 47 cb 46 cb 10 cb 1019,3 hPa 0,0 l/m 9,5 km/h (2 Bft) W-NW 299 0 min 0,000 mm 0,0 UV-I 77 W/m 6,5 C 4,5 C 16,1 km/h (3 Bft)
22.05.2019 07:23 6,8 C 8,3 C 9,4 C 10,6 C 10,6 C 97 % 0 lf 83 cb 47 cb 46 cb 10 cb 1019,3 hPa 0,0 l/m 9,7 km/h (2 Bft) W-NW 297 0 min 0,000 mm 0,0 UV-I 69 W/m 6,4 C 4,3 C 19,3 km/h (3 Bft)
22.05.2019 07:21 6,8 C 7,8 C 9,4 C 10,6 C 10,6 C 97 % 0 lf 82 cb 47 cb 46 cb 10 cb 1019,3 hPa 0,0 l/m 6,6 km/h (2 Bft) NW 313 0 min 0,000 mm 0,0 UV-I 74 W/m 6,4 C 6,7 C 11,3 km/h (2 Bft)
22.05.2019 07:19 6,8 C 7,8 C 9,4 C 10,6 C 10,6 C 97 % 0 lf 83 cb 47 cb 46 cb 10 cb 1019,2 hPa 0,0 l/m 7,1 km/h (2 Bft) NW 307 0 min 0,000 mm 0,0 UV-I 70 W/m 6,4 C 6,2 C 16,1 km/h (3 Bft)
22.05.2019 07:17 6,8 C 7,8 C 9,4 C 10,6 C 10,6 C 97 % 0 lf 83 cb 47 cb 46 cb 10 cb 1019,2 hPa 0,0 l/m 9,1 km/h (2 Bft) NW 325 0 min 0,000 mm 0,0 UV-I 81 W/m 6,4 C 4,7 C 17,7 km/h (3 Bft)
22.05.2019 07:15 6,7 C 7,8 C 9,4 C 10,6 C 10,6 C 97 % 0 lf 83 cb 47 cb 46 cb 10 cb 1019,2 hPa 0,0 l/m 7,7 km/h (2 Bft) W-NW 300 0 min 0,000 mm 0,0 UV-I 70 W/m 6,3 C 5,6 C 14,5 km/h (3 Bft)
22.05.2019 07:13 6,7 C 7,8 C 9,4 C 10,6 C 10,6 C 97 % 0 lf 83 cb 47 cb 46 cb 10 cb 1019,2 hPa 0,0 l/m 7,5 km/h (2 Bft) W-NW 300 0 min 0,000 mm 0,0 UV-I 74 W/m 6,3 C 5,8 C 11,3 km/h (2 Bft)
22.05.2019 07:12 6,7 C 7,8 C 9,4 C 10,6 C 10,6 C 97 % 0 lf 83 cb 47 cb 46 cb 10 cb 1019,2 hPa 0,0 l/m 10,2 km/h (2 Bft) W-NW 300 0 min 0,000 mm 0,0 UV-I 77 W/m 6,3 C 3,8 C 19,3 km/h (3 Bft)
22.05.2019 07:11 6,6 C 7,2 C 9,4 C 10,6 C 10,6 C 97 % 0 lf 82 cb 47 cb 46 cb 10 cb 1019,2 hPa 0,0 l/m 8,2 km/h (2 Bft) NW 311 0 min 0,000 mm 0,0 UV-I 79 W/m 6,2 C 5,1 C 17,7 km/h (3 Bft)
22.05.2019 07:09 6,6 C 7,2 C 9,4 C 10,6 C 10,6 C 97 % 0 lf 82 cb 47 cb 46 cb 10 cb 1019,2 hPa 0,0 l/m 7,5 km/h (2 Bft) NW 311 0 min 0,000 mm 0,0 UV-I 72 W/m 6,2 C 5,7 C 16,1 km/h (3 Bft)
22.05.2019 07:07 6,6 C 7,2 C 9,4 C 10,6 C 10,6 C 97 % 0 lf 82 cb 47 cb 46 cb 10 cb 1019,2 hPa 0,0 l/m 7,3 km/h (2 Bft) NW 312 0 min 0,000 mm 0,0 UV-I 72 W/m 6,2 C 5,8 C 14,5 km/h (3 Bft)
22.05.2019 07:05 6,6 C 6,7 C 9,4 C 10,6 C 10,6 C 97 % 1 lf 82 cb 47 cb 46 cb 10 cb 1019,1 hPa 0,0 l/m 6,1 km/h (2 Bft) W-NW 302 0 min 0,000 mm 0,0 UV-I 67 W/m 6,2 C 6,6 C 9,7 km/h (2 Bft)
22.05.2019 07:03 6,6 C 6,7 C 9,4 C 10,6 C 10,6 C 97 % 1 lf 83 cb 47 cb 46 cb 10 cb 1019,1 hPa 0,0 l/m 7,4 km/h (2 Bft) W-NW 298 0 min 0,000 mm 0,0 UV-I 51 W/m 6,2 C 5,8 C 19,3 km/h (3 Bft)
22.05.2019 07:01 6,6 C 6,7 C 9,4 C 10,6 C 11,1 C 97 % 1 lf 83 cb 47 cb 46 cb 10 cb 1019,1 hPa 0,0 l/m 8,0 km/h (2 Bft) W-NW 288 0 min 0,025 mm 0,0 UV-I 35 W/m 6,2 C 5,3 C 17,7 km/h (3 Bft)
22.05.2019 06:59 6,7 C 6,7 C 9,4 C 10,6 C 11,1 C 97 % 1 lf 82 cb 47 cb 46 cb 10 cb 1019,1 hPa 0,0 l/m 10,4 km/h (2 Bft) W-NW 289 0 min 0,000 mm 0,0 UV-I 28 W/m 6,3 C 3,7 C 22,5 km/h (4 Bft)
22.05.2019 06:57 6,7 C 6,7 C 9,4 C 10,6 C 11,1 C 97 % 1 lf 81 cb 47 cb 46 cb 10 cb 1019,1 hPa 0,0 l/m 8,2 km/h (2 Bft) W-NW 296 0 min 0,000 mm 0,0 UV-I 35 W/m 6,3 C 5,2 C 19,3 km/h (3 Bft)
22.05.2019 06:55 6,7 C 7,2 C 9,4 C 10,6 C 11,1 C 97 % 1 lf 82 cb 47 cb 46 cb 10 cb 1019,1 hPa 0,0 l/m 8,6 km/h (2 Bft) NW 311 0 min 0,000 mm 0,0 UV-I 46 W/m 6,3 C 4,9 C 14,5 km/h (3 Bft)
22.05.2019 06:53 6,7 C 7,2 C 9,4 C 10,6 C 11,1 C 97 % 1 lf 82 cb 47 cb 46 cb 10 cb 1019,0 hPa 0,0 l/m 10,0 km/h (2 Bft) W-NW 300 0 min 0,000 mm 0,0 UV-I 47 W/m 6,3 C 4,0 C 17,7 km/h (3 Bft)
22.05.2019 06:51 6,8 C 7,2 C 9,4 C 10,6 C 11,1 C 97 % 1 lf 82 cb 47 cb 46 cb 10 cb 1019,0 hPa 0,0 l/m 11,1 km/h (2 Bft) NW 319 0 min 0,000 mm 0,0 UV-I 49 W/m 6,4 C 3,4 C 17,7 km/h (3 Bft)
22.05.2019 06:49 6,8 C 7,2 C 9,4 C 10,6 C 11,1 C 97 % 1 lf 82 cb 47 cb 46 cb 10 cb 1019,0 hPa 0,0 l/m 5,8 km/h (2 Bft) NW 304 0 min 0,000 mm 0,0 UV-I 56 W/m 6,4 C 6,8 C 9,7 km/h (2 Bft)
22.05.2019 06:47 6,8 C 7,2 C 9,4 C 10,6 C 11,1 C 97 % 1 lf 82 cb 47 cb 46 cb 10 cb 1019,0 hPa 0,0 l/m 6,6 km/h (2 Bft) NW 305 0 min 0,000 mm 0,0 UV-I 62 W/m 6,4 C 6,7 C 11,3 km/h (2 Bft)
22.05.2019 06:45 6,7 C 7,2 C 9,4 C 10,6 C 11,1 C 97 % 1 lf 82 cb 47 cb 46 cb 10 cb 1019,0 hPa 0,0 l/m 7,7 km/h (2 Bft) W-NW 302 0 min 0,000 mm 0,0 UV-I 56 W/m 6,3 C 5,6 C 17,7 km/h (3 Bft)
22.05.2019 06:43 6,7 C 7,2 C 9,4 C 10,6 C 11,1 C 97 % 1 lf 82 cb 47 cb 46 cb 10 cb 1018,9 hPa 0,0 l/m 6,0 km/h (2 Bft) NW 307 0 min 0,000 mm 0,0 UV-I 46 W/m 6,3 C 6,7 C 16,1 km/h (3 Bft)
22.05.2019 06:41 6,7 C 7,2 C 9,4 C 10,6 C 11,1 C 97 % 1 lf 82 cb 47 cb 46 cb 10 cb 1019,0 hPa 0,0 l/m 6,5 km/h (2 Bft) NW 311 0 min 0,000 mm 0,0 UV-I 42 W/m 6,3 C 6,6 C 11,3 km/h (2 Bft)
22.05.2019 06:39 6,7 C 7,2 C 9,4 C 10,6 C 11,1 C 97 % 1 lf 82 cb 47 cb 46 cb 10 cb 1018,9 hPa 0,0 l/m 10,9 km/h (2 Bft) NW 313 0 min 0,000 mm 0,0 UV-I 49 W/m 6,3 C 3,4 C 19,3 km/h (3 Bft)
22.05.2019 06:37 6,7 C 7,2 C 9,4 C 10,6 C 11,1 C 97 % 1 lf 82 cb 46 cb 46 cb 10 cb 1018,9 hPa 0,0 l/m 10,7 km/h (2 Bft) NW 310 0 min 0,000 mm 0,0 UV-I 39 W/m 6,3 C 3,5 C 20,9 km/h (4 Bft)
22.05.2019 06:35 6,7 C 6,7 C 9,4 C 10,6 C 11,1 C 97 % 1 lf 82 cb 46 cb 46 cb 10 cb 1018,9 hPa 0,0 l/m 8,0 km/h (2 Bft) NW 325 0 min 0,000 mm 0,0 UV-I 40 W/m 6,3 C 5,4 C 16,1 km/h (3 Bft)
22.05.2019 06:33 6,7 C 6,7 C 9,4 C 10,6 C 11,1 C 97 % 1 lf 82 cb 46 cb 46 cb 10 cb 1019,0 hPa 0,0 l/m 7,9 km/h (2 Bft) W-NW 290 0 min 0,000 mm 0,0 UV-I 30 W/m 6,3 C 5,5 C 11,3 km/h (2 Bft)
22.05.2019 06:31 6,7 C 6,7 C 9,4 C 10,6 C 11,1 C 97 % 1 lf 82 cb 46 cb 46 cb 10 cb 1018,9 hPa 0,0 l/m 13,0 km/h (3 Bft) W-NW 291 0 min 0,000 mm 0,0 UV-I 19 W/m 6,3 C 2,2 C 20,9 km/h (4 Bft)
22.05.2019 06:29 6,7 C 6,7 C 9,4 C 10,6 C 11,1 C 97 % 1 lf 82 cb 46 cb 46 cb 10 cb 1018,9 hPa 0,0 l/m 6,7 km/h (2 Bft) W-NW 294 0 min 0,000 mm 0,0 UV-I 14 W/m 6,3 C 6,5 C 11,3 km/h (2 Bft)
22.05.2019 06:28 6,7 C 6,7 C 9,4 C 10,6 C 11,1 C 97 % 1 lf 82 cb 46 cb 46 cb 10 cb 1018,9 hPa 0,0 l/m 8,8 km/h (2 Bft) W-NW 292 0 min 0,000 mm 0,0 UV-I 14 W/m 6,3 C 4,8 C 14,5 km/h (3 Bft)
22.05.2019 06:27 6,7 C 6,7 C 9,4 C 10,6 C 11,1 C 97 % 2 lf 82 cb 46 cb 46 cb 10 cb 1019,0 hPa 0,0 l/m 7,6 km/h (2 Bft) W-NW 301 0 min 0,000 mm 0,0 UV-I 12 W/m 6,3 C 5,7 C 16,1 km/h (3 Bft)
22.05.2019 06:25 6,7 C 6,7 C 9,4 C 10,6 C 11,1 C 97 % 2 lf 82 cb 46 cb 46 cb 10 cb 1018,9 hPa 0,0 l/m 8,0 km/h (2 Bft) W-NW 299 0 min 0,000 mm 0,0 UV-I 12 W/m 6,3 C 5,4 C 17,7 km/h (3 Bft)
22.05.2019 06:23 6,7 C 6,7 C 9,4 C 10,6 C 11,1 C 97 % 2 lf 82 cb 46 cb 46 cb 10 cb 1018,9 hPa 0,0 l/m 8,7 km/h (2 Bft) NW 318 0 min 0,000 mm 0,0 UV-I 12 W/m 6,3 C 4,9 C 14,5 km/h (3 Bft)
22.05.2019 06:21 6,7 C 6,7 C 9,4 C 10,6 C 11,1 C 97 % 2 lf 82 cb 46 cb 46 cb 10 cb 1018,9 hPa 0,0 l/m 8,2 km/h (2 Bft) NW 323 0 min 0,000 mm 0,0 UV-I 11 W/m 6,3 C 5,2 C 17,7 km/h (3 Bft)
22.05.2019 06:19 6,7 C 6,7 C 9,4 C 10,6 C 11,1 C 97 % 1 lf 82 cb 46 cb 46 cb 10 cb 1018,9 hPa 0,0 l/m 9,9 km/h (2 Bft) W-NW 290 0 min 0,000 mm 0,0 UV-I 11 W/m 6,3 C 4,0 C 19,3 km/h (3 Bft)
22.05.2019 06:17 6,8 C 6,7 C 9,4 C 10,6 C 11,1 C 97 % 2 lf 82 cb 46 cb 46 cb 10 cb 1018,9 hPa 0,0 l/m 7,3 km/h (2 Bft) NW 306 0 min 0,000 mm 0,0 UV-I 11 W/m 6,4 C 6,1 C 11,3 km/h (2 Bft)
22.05.2019 06:15 6,8 C 6,7 C 9,4 C 10,6 C 11,1 C 97 % 2 lf 82 cb 46 cb 46 cb 10 cb 1018,9 hPa 0,0 l/m 10,5 km/h (2 Bft) W-NW 292 0 min 0,000 mm 0,0 UV-I 9 W/m 6,4 C 3,7 C 17,7 km/h (3 Bft)
22.05.2019 06:13 6,8 C 7,2 C 9,4 C 10,6 C 11,1 C 97 % 2 lf 82 cb 46 cb 46 cb 10 cb 1018,9 hPa 0,0 l/m 10,7 km/h (2 Bft) W-NW 295 0 min 0,000 mm 0,0 UV-I 9 W/m 6,4 C 3,6 C 19,3 km/h (3 Bft)
22.05.2019 06:11 6,8 C 7,2 C 9,4 C 10,6 C 11,1 C 97 % 2 lf 82 cb 46 cb 46 cb 10 cb 1018,8 hPa 0,0 l/m 10,4 km/h (2 Bft) W-NW 295 0 min 0,000 mm 0,0 UV-I 11 W/m 6,4 C 3,8 C 19,3 km/h (3 Bft)
22.05.2019 06:09 6,8 C 7,2 C 9,4 C 10,6 C 11,1 C 97 % 2 lf 82 cb 46 cb 46 cb 10 cb 1018,9 hPa 0,0 l/m 8,3 km/h (2 Bft) W-NW 299 0 min 0,000 mm 0,0 UV-I 9 W/m 6,4 C 5,3 C 16,1 km/h (3 Bft)
22.05.2019 06:07 6,8 C 7,2 C 9,4 C 10,6 C 11,1 C 97 % 2 lf 82 cb 46 cb 46 cb 10 cb 1018,9 hPa 0,0 l/m 11,4 km/h (2 Bft) NW 317 0 min 0,000 mm 0,0 UV-I 9 W/m 6,4 C 3,2 C 19,3 km/h (3 Bft)
22.05.2019 06:05 6,8 C 7,2 C 9,4 C 10,6 C 11,1 C 97 % 2 lf 82 cb 46 cb 46 cb 10 cb 1018,8 hPa 0,0 l/m 10,4 km/h (2 Bft) NW 306 0 min 0,000 mm 0,0 UV-I 7 W/m 6,4 C 3,8 C 22,5 km/h (4 Bft)
22.05.2019 06:03 6,8 C 7,2 C 9,4 C 10,6 C 11,1 C 97 % 2 lf 82 cb 46 cb 46 cb 10 cb 1018,8 hPa 0,0 l/m 10,2 km/h (2 Bft) W-NW 292 0 min 0,000 mm 0,0 UV-I 7 W/m 6,4 C 3,9 C 19,3 km/h (3 Bft)
22.05.2019 06:01 6,8 C 7,2 C 9,4 C 10,6 C 11,1 C 97 % 2 lf 82 cb 46 cb 46 cb 10 cb 1018,8 hPa 0,0 l/m 6,6 km/h (2 Bft) W-NW 292 0 min 0,000 mm 0,0 UV-I 9 W/m 6,4 C 6,7 C 11,3 km/h (2 Bft)
22.05.2019 05:59 6,8 C 6,7 C 9,4 C 10,6 C 11,1 C 97 % 2 lf 82 cb 46 cb 46 cb 10 cb 1018,8 hPa 0,0 l/m 8,1 km/h (2 Bft) W-NW 292 0 min 0,000 mm 0,0 UV-I 11 W/m 6,4 C 5,4 C 19,3 km/h (3 Bft)
22.05.2019 05:57 6,8 C 6,7 C 9,4 C 10,6 C 11,1 C 97 % 2 lf 81 cb 46 cb 46 cb 10 cb 1018,8 hPa 0,0 l/m 7,2 km/h (2 Bft) NW 309 0 min 0,000 mm 0,0 UV-I 5 W/m 6,4 C 6,1 C 12,9 km/h (3 Bft)
22.05.2019 05:55 6,8 C 6,7 C 9,4 C 10,6 C 11,1 C 97 % 2 lf 82 cb 46 cb 46 cb 10 cb 1018,8 hPa 0,0 l/m 9,1 km/h (2 Bft) NW 309 0 min 0,000 mm 0,0 UV-I 5 W/m 6,4 C 4,7 C 16,1 km/h (3 Bft)
22.05.2019 05:53 6,8 C 6,7 C 9,4 C 10,6 C 11,1 C 97 % 2 lf 82 cb 46 cb 46 cb 10 cb 1018,8 hPa 0,0 l/m 13,2 km/h (3 Bft) W-NW 298 0 min 0,000 mm 0,0 UV-I 0 W/m 6,4 C 2,2 C 20,9 km/h (4 Bft)
22.05.2019 05:51 6,8 C 6,7 C 9,4 C 10,6 C 11,1 C 97 % 2 lf 82 cb 46 cb 46 cb 10 cb 1018,8 hPa 0,0 l/m 10,2 km/h (2 Bft) W-NW 290 0 min 0,000 mm 0,0 UV-I 5 W/m 6,4 C 3,9 C 20,9 km/h (4 Bft)
22.05.2019 05:49 6,8 C 6,7 C 9,4 C 10,6 C 11,1 C 97 % 2 lf 82 cb 46 cb 46 cb 10 cb 1018,8 hPa 0,0 l/m 9,6 km/h (2 Bft) NW 315 0 min 0,000 mm 0,0 UV-I 0 W/m 6,4 C 4,3 C 17,7 km/h (3 Bft)
22.05.2019 05:47 6,8 C 6,7 C 9,4 C 10,6 C 11,1 C 97 % 2 lf 81 cb 46 cb 46 cb 10 cb 1018,9 hPa 0,0 l/m 9,9 km/h (2 Bft) W-NW 290 0 min 0,000 mm 0,0 UV-I 0 W/m 6,4 C 4,1 C 20,9 km/h (4 Bft)
22.05.2019 05:45 6,8 C 6,7 C 9,4 C 10,6 C 11,1 C 97 % 2 lf 82 cb 46 cb 46 cb 10 cb 1018,9 hPa 0,0 l/m 8,7 km/h (2 Bft) W-NW 288 0 min 0,000 mm 0,0 UV-I 0 W/m 6,4 C 5,0 C 17,7 km/h (3 Bft)
22.05.2019 05:43 6,8 C 6,7 C 9,4 C 10,6 C 11,1 C 97 % 2 lf 81 cb 46 cb 46 cb 10 cb 1018,9 hPa 0,0 l/m 7,8 km/h (2 Bft) NW 305 0 min 0,000 mm 0,0 UV-I 0 W/m 6,4 C 5,6 C 14,5 km/h (3 Bft)
22.05.2019 05:41 6,9 C 6,7 C 9,4 C 10,6 C 11,1 C 97 % 2 lf 82 cb 46 cb 46 cb 10 cb 1018,9 hPa 0,0 l/m 8,2 km/h (2 Bft) W-NW 302 0 min 0,000 mm 0,0 UV-I 0 W/m 6,5 C 5,4 C 14,5 km/h (3 Bft)
22.05.2019 05:39 6,9 C 6,7 C 9,4 C 10,6 C 11,1 C 97 % 2 lf 81 cb 46 cb 46 cb 10 cb 1018,8 hPa 0,0 l/m 12,3 km/h (3 Bft) W-NW 290 0 min 0,000 mm 0,0 UV-I 0 W/m 6,5 C 2,8 C 19,3 km/h (3 Bft)
22.05.2019 05:37 6,9 C 6,7 C 9,4 C 10,6 C 11,1 C 97 % 2 lf 81 cb 46 cb 46 cb 10 cb 1018,8 hPa 0,0 l/m 6,1 km/h (2 Bft) NW 314 0 min 0,000 mm 0,0 UV-I 0 W/m 6,5 C 6,9 C 11,3 km/h (2 Bft)
22.05.2019 05:35 6,9 C 6,7 C 9,4 C 10,6 C 11,1 C 97 % 2 lf 81 cb 46 cb 46 cb 10 cb 1018,8 hPa 0,0 l/m 6,4 km/h (2 Bft) W-NW 298 0 min 0,000 mm 0,0 UV-I 0 W/m 6,5 C 6,9 C 11,3 km/h (2 Bft)
22.05.2019 05:33 6,9 C 7,2 C 10,0 C 10,6 C 11,1 C 97 % 2 lf 82 cb 47 cb 46 cb 10 cb 1018,7 hPa 0,0 l/m 8,9 km/h (2 Bft) W-NW 295 0 min 0,000 mm 0,0 UV-I 0 W/m 6,5 C 4,9 C 20,9 km/h (4 Bft)
22.05.2019 05:31 6,9 C 7,2 C 10,0 C 11,1 C 11,1 C 97 % 2 lf 82 cb 47 cb 46 cb 10 cb 1018,7 hPa 0,0 l/m 11,2 km/h (2 Bft) W-NW 298 0 min 0,000 mm 0,0 UV-I 0 W/m 6,5 C 3,4 C 19,3 km/h (3 Bft)
22.05.2019 05:29 7,0 C 7,2 C 10,0 C 11,1 C 11,1 C 97 % 2 lf 82 cb 47 cb 46 cb 10 cb 1018,7 hPa 0,0 l/m 9,4 km/h (2 Bft) W-NW 288 0 min 0,000 mm 0,0 UV-I 0 W/m 6,6 C 4,7 C 16,1 km/h (3 Bft)
22.05.2019 05:27 7,0 C 7,2 C 10,0 C 11,1 C 11,1 C 97 % 2 lf 82 cb 47 cb 46 cb 10 cb 1018,7 hPa 0,0 l/m 8,9 km/h (2 Bft) NW 311 0 min 0,000 mm 0,0 UV-I 0 W/m 6,6 C 5,0 C 14,5 km/h (3 Bft)
22.05.2019 05:25 7,1 C 7,2 C 10,0 C 11,1 C 11,1 C 97 % 3 lf 82 cb 47 cb 46 cb 10 cb 1018,7 hPa 0,0 l/m 6,1 km/h (2 Bft) W-NW 303 0 min 0,000 mm 0,0 UV-I 0 W/m 6,7 C 7,1 C 11,3 km/h (2 Bft)
22.05.2019 05:23 7,1 C 7,2 C 10,0 C 11,1 C 11,1 C 97 % 3 lf 82 cb 47 cb 46 cb 10 cb 1018,7 hPa 0,0 l/m 8,2 km/h (2 Bft) NW 309 0 min 0,000 mm 0,0 UV-I 0 W/m 6,7 C 5,7 C 16,1 km/h (3 Bft)
22.05.2019 05:21 7,1 C 7,2 C 10,0 C 11,1 C 11,1 C 97 % 3 lf 82 cb 47 cb 46 cb 10 cb 1018,7 hPa 0,0 l/m 7,0 km/h (2 Bft) W-NW 286 0 min 0,000 mm 0,0 UV-I 0 W/m 6,7 C 6,6 C 16,1 km/h (3 Bft)
22.05.2019 05:19 7,2 C 7,2 C 10,0 C 11,1 C 11,1 C 97 % 3 lf 82 cb 47 cb 46 cb 10 cb 1018,7 hPa 0,0 l/m 9,2 km/h (2 Bft) W-NW 284 0 min 0,000 mm 0,0 UV-I 0 W/m 6,8 C 5,0 C 20,9 km/h (4 Bft)
22.05.2019 05:17 7,2 C 7,2 C 10,0 C 11,1 C 11,1 C 97 % 3 lf 82 cb 47 cb 46 cb 10 cb 1018,7 hPa 0,0 l/m 8,7 km/h (2 Bft) W 277 0 min 0,000 mm 0,0 UV-I 0 W/m 6,8 C 5,4 C 19,3 km/h (3 Bft)
22.05.2019 05:15 7,2 C 7,2 C 10,0 C 11,1 C 11,1 C 97 % 3 lf 82 cb 47 cb 46 cb 10 cb 1018,7 hPa 0,0 l/m 6,1 km/h (2 Bft) W 281 0 min 0,000 mm 0,0 UV-I 0 W/m 6,8 C 7,2 C 12,9 km/h (3 Bft)
22.05.2019 05:13 7,2 C 7,8 C 10,0 C 11,1 C 11,1 C 97 % 4 lf 83 cb 46 cb 46 cb 10 cb 1018,7 hPa 0,0 l/m 6,9 km/h (2 Bft) W-NW 298 0 min 0,000 mm 0,0 UV-I 0 W/m 6,8 C 6,8 C 14,5 km/h (3 Bft)
22.05.2019 05:11 7,3 C 7,8 C 10,0 C 11,1 C 11,1 C 97 % 4 lf 83 cb 46 cb 46 cb 10 cb 1018,7 hPa 0,0 l/m 11,2 km/h (2 Bft) W-NW 297 0 min 0,000 mm 0,0 UV-I 0 W/m 6,9 C 3,9 C 25,7 km/h (4 Bft)
22.05.2019 05:09 7,3 C 7,8 C 10,0 C 11,1 C 11,1 C 97 % 4 lf 83 cb 46 cb 46 cb 10 cb 1018,7 hPa 0,0 l/m 14,1 km/h (3 Bft) W-NW 286 0 min 0,000 mm 0,0 UV-I 0 W/m 6,9 C 2,3 C 25,7 km/h (4 Bft)
22.05.2019 05:07 7,3 C 7,8 C 10,0 C 11,1 C 11,1 C 97 % 4 lf 83 cb 46 cb 46 cb 10 cb 1018,7 hPa 0,0 l/m 8,0 km/h (2 Bft) W-NW 295 0 min 0,000 mm 0,0 UV-I 0 W/m 6,9 C 6,0 C 19,3 km/h (3 Bft)
22.05.2019 05:05 7,3 C 7,8 C 10,0 C 11,1 C 11,1 C 97 % 4 lf 83 cb 46 cb 46 cb 10 cb 1018,7 hPa 0,0 l/m 5,6 km/h (1 Bft) W 275 0 min 0,000 mm 0,0 UV-I 0 W/m 6,9 C 7,3 C 11,3 km/h (2 Bft)
22.05.2019 05:03 7,4 C 7,8 C 10,0 C 11,1 C 11,1 C 97 % 4 lf 83 cb 46 cb 46 cb 10 cb 1018,6 hPa 0,0 l/m 11,2 km/h (2 Bft) W 265 0 min 0,000 mm 0,0 UV-I 0 W/m 7,0 C 4,0 C 20,9 km/h (4 Bft)
22.05.2019 05:01 7,4 C 7,8 C 10,0 C 11,1 C 11,1 C 97 % 4 lf 83 cb 46 cb 46 cb 10 cb 1018,6 hPa 0,0 l/m 11,9 km/h (2 Bft) W 277 0 min 0,000 mm 0,0 UV-I 0 W/m 7,0 C 3,6 C 19,3 km/h (3 Bft)
22.05.2019 04:59 7,4 C 7,8 C 10,0 C 11,1 C 11,1 C 97 % 4 lf 83 cb 46 cb 46 cb 10 cb 1018,6 hPa 0,0 l/m 7,5 km/h (2 Bft) W-NW 294 0 min 0,000 mm 0,0 UV-I 0 W/m 7,0 C 6,5 C 17,7 km/h (3 Bft)
22.05.2019 04:57 7,4 C 7,8 C 10,0 C 11,1 C 11,1 C 97 % 4 lf 83 cb 46 cb 46 cb 10 cb 1018,6 hPa 0,2 l/m 6,7 km/h (2 Bft) NW 304 0 min 0,000 mm 0,0 UV-I 0 W/m 7,0 C 7,2 C 16,1 km/h (3 Bft)
22.05.2019 04:55 7,4 C 7,8 C 10,0 C 11,1 C 11,1 C 97 % 4 lf 83 cb 46 cb 46 cb 10 cb 1018,5 hPa 0,0 l/m 7,5 km/h (2 Bft) W-NW 301 0 min 0,000 mm 0,0 UV-I 0 W/m 7,0 C 6,5 C 11,3 km/h (2 Bft)
22.05.2019 04:53 7,4 C 7,8 C 10,0 C 11,1 C 11,1 C 97 % 4 lf 83 cb 46 cb 46 cb 10 cb 1018,5 hPa 0,0 l/m 9,2 km/h (2 Bft) W-NW 292 0 min 0,000 mm 0,0 UV-I 0 W/m 7,0 C 5,3 C 19,3 km/h (3 Bft)
22.05.2019 04:51 7,5 C 7,8 C 10,0 C 11,1 C 11,1 C 97 % 4 lf 83 cb 46 cb 46 cb 10 cb 1018,5 hPa 0,0 l/m 11,6 km/h (2 Bft) W-NW 302 0 min 0,000 mm 0,0 UV-I 0 W/m 7,1 C 3,9 C 20,9 km/h (4 Bft)
22.05.2019 04:49 7,5 C 7,8 C 10,0 C 11,1 C 11,1 C 97 % 4 lf 82 cb 46 cb 46 cb 10 cb 1018,5 hPa 0,0 l/m 7,7 km/h (2 Bft) W-NW 295 0 min 0,000 mm 0,0 UV-I 0 W/m 7,1 C 6,5 C 16,1 km/h (3 Bft)
22.05.2019 04:47 7,5 C 7,8 C 10,0 C 11,1 C 11,1 C 97 % 4 lf 82 cb 46 cb 46 cb 10 cb 1018,5 hPa 0,0 l/m 10,3 km/h (2 Bft) W-NW 296 0 min 0,000 mm 0,0 UV-I 0 W/m 7,1 C 4,6 C 17,7 km/h (3 Bft)
22.05.2019 04:45 7,6 C 7,8 C 10,0 C 11,1 C 11,1 C 97 % 4 lf 82 cb 46 cb 46 cb 10 cb 1018,5 hPa 0,0 l/m 8,1 km/h (2 Bft) W-NW 296 0 min 0,000 mm 0,0 UV-I 0 W/m 7,2 C 6,3 C 16,1 km/h (3 Bft)
22.05.2019 04:43 7,6 C 7,8 C 10,0 C 11,1 C 11,1 C 97 % 4 lf 82 cb 46 cb 46 cb 10 cb 1018,5 hPa 0,0 l/m 7,4 km/h (2 Bft) W-NW 286 0 min 0,000 mm 0,0 UV-I 0 W/m 7,2 C 6,8 C 17,7 km/h (3 Bft)
22.05.2019 04:41 7,6 C 7,8 C 10,0 C 11,1 C 11,1 C 97 % 4 lf 82 cb 46 cb 46 cb 10 cb 1018,5 hPa 0,0 l/m 11,8 km/h (2 Bft) W-NW 293 0 min 0,000 mm 0,0 UV-I 0 W/m 7,2 C 3,9 C 20,9 km/h (4 Bft)
22.05.2019 04:39 7,6 C 7,8 C 10,0 C 11,1 C 11,1 C 97 % 4 lf 82 cb 46 cb 46 cb 10 cb 1018,4 hPa 0,0 l/m 12,5 km/h (3 Bft) W-NW 295 0 min 0,000 mm 0,0 UV-I 0 W/m 7,2 C 3,5 C 20,9 km/h (4 Bft)
22.05.2019 04:37 7,6 C 7,8 C 10,0 C 11,1 C 11,1 C 97 % 4 lf 82 cb 46 cb 46 cb 10 cb 1018,4 hPa 0,0 l/m 10,6 km/h (2 Bft) W-NW 294 0 min 0,000 mm 0,0 UV-I 0 W/m 7,2 C 4,6 C 24,1 km/h (4 Bft)
22.05.2019 04:35 7,7 C 7,8 C 10,0 C 11,1 C 11,1 C 97 % 4 lf 83 cb 46 cb 46 cb 10 cb 1018,3 hPa 0,0 l/m 12,1 km/h (2 Bft) W-NW 298 0 min 0,000 mm 0,0 UV-I 0 W/m 7,3 C 3,8 C 22,5 km/h (4 Bft)
22.05.2019 04:33 7,7 C 7,8 C 10,0 C 11,1 C 11,1 C 97 % 4 lf 82 cb 46 cb 46 cb 10 cb 1018,3 hPa 0,0 l/m 7,2 km/h (2 Bft) W-NW 282 0 min 0,000 mm 0,0 UV-I 0 W/m 7,3 C 7,1 C 16,1 km/h (3 Bft)
22.05.2019 04:31 7,7 C 7,8 C 10,0 C 11,1 C 11,1 C 97 % 4 lf 82 cb 46 cb 46 cb 10 cb 1018,3 hPa 0,0 l/m 5,8 km/h (2 Bft) W 269 0 min 0,000 mm 0,0 UV-I 0 W/m 7,3 C 7,7 C 8,0 km/h (2 Bft)
22.05.2019 04:29 7,7 C 7,8 C 10,0 C 11,1 C 11,1 C 97 % 4 lf 82 cb 46 cb 46 cb 10 cb 1018,3 hPa 0,0 l/m 6,9 km/h (2 Bft) W 268 0 min 0,000 mm 0,0 UV-I 0 W/m 7,3 C 7,3 C 14,5 km/h (3 Bft)
22.05.2019 04:27 7,7 C 7,8 C 10,0 C 11,1 C 11,1 C 97 % 4 lf 82 cb 46 cb 46 cb 10 cb 1018,4 hPa 0,0 l/m 10,3 km/h (2 Bft) W-NW 287 0 min 0,000 mm 0,0 UV-I 0 W/m 7,3 C 4,9 C 19,3 km/h (3 Bft)
22.05.2019 04:25 7,7 C 7,8 C 10,0 C 11,1 C 11,1 C 97 % 4 lf 82 cb 46 cb 46 cb 10 cb 1018,3 hPa 0,0 l/m 9,3 km/h (2 Bft) W-NW 292 0 min 0,000 mm 0,0 UV-I 0 W/m 7,3 C 5,5 C 22,5 km/h (4 Bft)
22.05.2019 04:23 7,7 C 7,8 C 10,0 C 11,1 C 11,1 C 97 % 4 lf 82 cb 46 cb 46 cb 10 cb 1018,3 hPa 0,0 l/m 7,6 km/h (2 Bft) W-NW 290 0 min 0,000 mm 0,0 UV-I 0 W/m 7,3 C 6,7 C 14,5 km/h (3 Bft)
22.05.2019 04:21 7,7 C 7,8 C 10,0 C 11,1 C 11,1 C 97 % 4 lf 82 cb 46 cb 46 cb 10 cb 1018,3 hPa 0,0 l/m 9,7 km/h (2 Bft) W-NW 298 0 min 0,000 mm 0,0 UV-I 0 W/m 7,3 C 5,2 C 19,3 km/h (3 Bft)
22.05.2019 04:19 7,7 C 7,8 C 10,0 C 11,1 C 11,1 C 97 % 4 lf 82 cb 46 cb 46 cb 10 cb 1018,4 hPa 0,0 l/m 9,0 km/h (2 Bft) W-NW 289 0 min 0,000 mm 0,0 UV-I 0 W/m 7,3 C 5,7 C 16,1 km/h (3 Bft)
22.05.2019 04:17 7,7 C 7,8 C 10,0 C 11,1 C 11,1 C 97 % 4 lf 82 cb 46 cb 46 cb 10 cb 1018,4 hPa 0,0 l/m 10,9 km/h (2 Bft) W-NW 297 0 min 0,000 mm 0,0 UV-I 0 W/m 7,3 C 4,5 C 19,3 km/h (3 Bft)
22.05.2019 04:15 7,7 C 7,8 C 10,0 C 11,1 C 11,1 C 97 % 4 lf 82 cb 46 cb 46 cb 10 cb 1018,3 hPa 0,0 l/m 7,9 km/h (2 Bft) W-NW 286 0 min 0,000 mm 0,0 UV-I 0 W/m 7,3 C 6,5 C 14,5 km/h (3 Bft)
22.05.2019 04:13 7,7 C 7,8 C 10,0 C 11,1 C 11,1 C 97 % 4 lf 82 cb 46 cb 46 cb 10 cb 1018,4 hPa 0,0 l/m 6,8 km/h (2 Bft) W-NW 292 0 min 0,000 mm 0,0 UV-I 0 W/m 7,3 C 7,4 C 9,7 km/h (2 Bft)
22.05.2019 04:11 7,8 C 7,8 C 10,0 C 11,1 C 11,1 C 97 % 4 lf 82 cb 46 cb 46 cb 10 cb 1018,3 hPa 0,0 l/m 8,0 km/h (2 Bft) W-NW 288 0 min 0,000 mm 0,0 UV-I 0 W/m 7,4 C 6,5 C 14,5 km/h (3 Bft)
22.05.2019 04:09 7,8 C 7,8 C 10,0 C 11,1 C 11,1 C 97 % 4 lf 82 cb 46 cb 46 cb 10 cb 1018,3 hPa 0,0 l/m 7,6 km/h (2 Bft) W-NW 298 0 min 0,000 mm 0,0 UV-I 0 W/m 7,4 C 6,8 C 19,3 km/h (3 Bft)
22.05.2019 04:07 7,8 C 7,8 C 10,0 C 11,1 C 11,1 C 97 % 4 lf 82 cb 46 cb 46 cb 10 cb 1018,3 hPa 0,0 l/m 6,4 km/h (2 Bft) W-NW 303 0 min 0,000 mm 0,0 UV-I 0 W/m 7,4 C 7,8 C 16,1 km/h (3 Bft)
22.05.2019 04:05 7,8 C 7,8 C 10,0 C 11,1 C 11,1 C 97 % 4 lf 82 cb 46 cb 46 cb 10 cb 1018,3 hPa 0,0 l/m 7,7 km/h (2 Bft) W-NW 284 0 min 0,000 mm 0,0 UV-I 0 W/m 7,4 C 6,8 C 14,5 km/h (3 Bft)
22.05.2019 04:03 7,8 C 8,3 C 10,0 C 11,1 C 11,1 C 97 % 4 lf 83 cb 46 cb 46 cb 10 cb 1018,3 hPa 0,0 l/m 6,5 km/h (2 Bft) W-NW 288 0 min 0,000 mm 0,0 UV-I 0 W/m 7,4 C 7,7 C 12,9 km/h (3 Bft)
22.05.2019 04:01 7,8 C 8,3 C 10,0 C 11,1 C 11,1 C 97 % 4 lf 83 cb 46 cb 46 cb 10 cb 1018,3 hPa 0,0 l/m 7,4 km/h (2 Bft) W-NW 298 0 min 0,000 mm 0,0 UV-I 0 W/m 7,4 C 7,0 C 14,5 km/h (3 Bft)
22.05.2019 03:59 7,8 C 8,3 C 10,0 C 11,1 C 11,1 C 97 % 4 lf 83 cb 46 cb 46 cb 10 cb 1018,4 hPa 0,0 l/m 0,9 km/h (0 Bft) W-NW 298 0 min 0,000 mm 0,0 UV-I 0 W/m 7,4 C 7,8 C 4,8 km/h (1 Bft)
22.05.2019 03:57 7,8 C 8,3 C 10,0 C 11,1 C 11,1 C 97 % 4 lf 83 cb 46 cb 46 cb 10 cb 1018,4 hPa 0,0 l/m 3,0 km/h (1 Bft) W-NW 298 0 min 0,000 mm 0,0 UV-I 0 W/m 7,4 C 7,8 C 8,0 km/h (2 Bft)
22.05.2019 03:55 7,8 C 7,8 C 10,0 C 11,1 C 11,1 C 97 % 4 lf 82 cb 46 cb 46 cb 10 cb 1018,4 hPa 0,0 l/m 1,9 km/h (1 Bft) W-NW 298 0 min 0,000 mm 0,0 UV-I 0 W/m 7,4 C 7,8 C 8,0 km/h (2 Bft)
22.05.2019 03:53 7,8 C 8,3 C 10,0 C 11,1 C 11,1 C 97 % 4 lf 83 cb 46 cb 46 cb 10 cb 1018,4 hPa 0,0 l/m 6,5 km/h (2 Bft) W-NW 298 0 min 0,000 mm 0,0 UV-I 0 W/m 7,4 C 7,7 C 16,1 km/h (3 Bft)
22.05.2019 03:51 7,8 C 7,8 C 10,0 C 11,1 C 11,1 C 97 % 4 lf 82 cb 46 cb 46 cb 10 cb 1018,4 hPa 0,0 l/m 2,0 km/h (1 Bft) W-NW 296 0 min 0,000 mm 0,0 UV-I 0 W/m 7,4 C 7,8 C 11,3 km/h (2 Bft)
22.05.2019 03:49 7,8 C 7,8 C 10,0 C 11,1 C 11,1 C 97 % 4 lf 82 cb 46 cb 46 cb 10 cb 1018,4 hPa 0,0 l/m 3,9 km/h (1 Bft) W-NW 297 0 min 0,000 mm 0,0 UV-I 0 W/m 7,4 C 7,8 C 9,7 km/h (2 Bft)
22.05.2019 03:47 7,8 C 7,8 C 10,0 C 11,1 C 11,1 C 97 % 4 lf 82 cb 46 cb 46 cb 10 cb 1018,4 hPa 0,0 l/m 3,7 km/h (1 Bft) W-NW 297 0 min 0,000 mm 0,0 UV-I 0 W/m 7,4 C 7,8 C 16,1 km/h (3 Bft)
22.05.2019 03:45 7,8 C 8,3 C 10,0 C 11,1 C 11,1 C 97 % 3 lf 83 cb 46 cb 46 cb 10 cb 1018,5 hPa 0,0 l/m 1,7 km/h (1 Bft) W-NW 288 0 min 0,000 mm 0,0 UV-I 0 W/m 7,4 C 7,8 C 4,8 km/h (1 Bft)
22.05.2019 03:43 7,9 C 8,3 C 10,0 C 11,1 C 11,1 C 97 % 3 lf 83 cb 46 cb 46 cb 10 cb 1018,4 hPa 0,0 l/m 4,7 km/h (1 Bft) W-NW 288 0 min 0,000 mm 0,0 UV-I 0 W/m 7,5 C 7,9 C 11,3 km/h (2 Bft)
22.05.2019 03:41 7,9 C 8,3 C 10,0 C 11,1 C 11,1 C 97 % 3 lf 83 cb 46 cb 46 cb 10 cb 1018,4 hPa 0,0 l/m 2,8 km/h (1 Bft) W-NW 300 0 min 0,000 mm 0,0 UV-I 0 W/m 7,5 C 7,9 C 11,3 km/h (2 Bft)
22.05.2019 03:39 7,8 C 8,3 C 10,0 C 11,1 C 11,1 C 97 % 3 lf 83 cb 46 cb 46 cb 10 cb 1018,4 hPa 0,0 l/m 1,6 km/h (1 Bft) W-NW 300 0 min 0,000 mm 0,0 UV-I 0 W/m 7,4 C 7,8 C 6,4 km/h (2 Bft)
22.05.2019 03:37 7,9 C 8,3 C 10,0 C 11,1 C 11,1 C 97 % 3 lf 83 cb 46 cb 46 cb 10 cb 1018,4 hPa 0,0 l/m 5,7 km/h (1 Bft) W-NW 300 0 min 0,000 mm 0,0 UV-I 0 W/m 7,5 C 7,9 C 9,7 km/h (2 Bft)
22.05.2019 03:35 7,9 C 8,3 C 10,0 C 11,1 C 11,1 C 97 % 3 lf 83 cb 46 cb 46 cb 10 cb 1018,4 hPa 0,0 l/m 3,5 km/h (1 Bft) W-NW 301 0 min 0,000 mm 0,0 UV-I 0 W/m 7,5 C 7,9 C 11,3 km/h (2 Bft)
22.05.2019 03:33 7,9 C 8,3 C 10,0 C 11,1 C 11,1 C 97 % 3 lf 83 cb 46 cb 46 cb 10 cb 1018,3 hPa 0,0 l/m 2,2 km/h (1 Bft) W-NW 298 0 min 0,000 mm 0,0 UV-I 0 W/m 7,5 C 7,9 C 6,4 km/h (2 Bft)
22.05.2019 03:31 7,9 C 8,3 C 10,0 C 11,1 C 11,1 C 97 % 3 lf 83 cb 46 cb 46 cb 10 cb 1018,3 hPa 0,0 l/m 3,6 km/h (1 Bft) W-NW 296 0 min 0,000 mm 0,0 UV-I 0 W/m 7,5 C 7,9 C 8,0 km/h (2 Bft)
22.05.2019 03:29 7,9 C 8,3 C 10,0 C 11,1 C 11,1 C 97 % 3 lf 83 cb 46 cb 46 cb 10 cb 1018,2 hPa 0,0 l/m 9,9 km/h (2 Bft) W-NW 296 0 min 0,000 mm 0,0 UV-I 0 W/m 7,5 C 5,3 C 16,1 km/h (3 Bft)
22.05.2019 03:27 7,9 C 8,3 C 10,0 C 11,1 C 11,1 C 97 % 3 lf 83 cb 46 cb 46 cb 10 cb 1018,3 hPa 0,2 l/m 7,1 km/h (2 Bft) W-NW 302 0 min 0,000 mm 0,0 UV-I 0 W/m 7,5 C 7,3 C 14,5 km/h (3 Bft)
22.05.2019 03:25 7,9 C 8,3 C 10,0 C 11,1 C 11,1 C 97 % 3 lf 83 cb 46 cb 46 cb 10 cb 1018,2 hPa 0,0 l/m 5,7 km/h (1 Bft) NW 306 0 min 0,000 mm 0,0 UV-I 0 W/m 7,5 C 7,9 C 11,3 km/h (2 Bft)
22.05.2019 03:23 7,9 C 8,3 C 10,0 C 11,1 C 11,1 C 97 % 3 lf 83 cb 46 cb 46 cb 10 cb 1018,2 hPa 0,0 l/m 6,3 km/h (2 Bft) NW 307 0 min 0,000 mm 0,0 UV-I 0 W/m 7,5 C 7,9 C 9,7 km/h (2 Bft)
22.05.2019 03:21 8,0 C 8,3 C 10,0 C 11,1 C 11,1 C 97 % 3 lf 83 cb 46 cb 46 cb 10 cb 1018,3 hPa 0,0 l/m 9,8 km/h (2 Bft) NW 307 0 min 0,000 mm 0,0 UV-I 0 W/m 7,6 C 5,5 C 16,1 km/h (3 Bft)
22.05.2019 03:19 8,0 C 8,3 C 10,0 C 11,1 C 11,1 C 97 % 3 lf 83 cb 46 cb 46 cb 10 cb 1018,3 hPa 0,0 l/m 5,1 km/h (1 Bft) W-NW 296 0 min 0,000 mm 0,0 UV-I 0 W/m 7,6 C 8,0 C 14,5 km/h (3 Bft)
22.05.2019 03:17 8,0 C 8,3 C 10,6 C 11,1 C 11,1 C 97 % 3 lf 83 cb 46 cb 46 cb 10 cb 1018,2 hPa 0,0 l/m 0,0 km/h (0 Bft) W-NW 301 0 min 0,000 mm 0,0 UV-I 0 W/m 7,6 C 8,0 C 0,0 km/h (0 Bft)
22.05.2019 03:15 8,0 C 8,3 C 10,6 C 11,1 C 11,1 C 97 % 3 lf 83 cb 46 cb 46 cb 10 cb 1018,2 hPa 0,0 l/m 4,3 km/h (1 Bft) W-NW 301 0 min 0,000 mm 0,0 UV-I 0 W/m 7,6 C 8,0 C 6,4 km/h (2 Bft)
22.05.2019 03:13 8,0 C 8,3 C 10,6 C 11,1 C 11,1 C 97 % 3 lf 83 cb 46 cb 46 cb 10 cb 1018,2 hPa 0,0 l/m 8,0 km/h (2 Bft) NW 304 0 min 0,000 mm 0,0 UV-I 0 W/m 7,6 C 6,8 C 14,5 km/h (3 Bft)
22.05.2019 03:11 8,1 C 8,3 C 10,6 C 11,1 C 11,1 C 97 % 3 lf 83 cb 46 cb 46 cb 10 cb 1018,2 hPa 0,0 l/m 4,0 km/h (1 Bft) NW 314 0 min 0,000 mm 0,0 UV-I 0 W/m 7,7 C 8,1 C 9,7 km/h (2 Bft)
22.05.2019 03:09 8,1 C 8,3 C 10,6 C 11,1 C 11,1 C 97 % 3 lf 83 cb 46 cb 46 cb 10 cb 1018,2 hPa 0,0 l/m 5,9 km/h (2 Bft) NW 313 0 min 0,000 mm 0,0 UV-I 0 W/m 7,7 C 8,1 C 9,7 km/h (2 Bft)
22.05.2019 03:07 8,1 C 8,3 C 10,6 C 11,1 C 11,1 C 97 % 3 lf 83 cb 46 cb 46 cb 10 cb 1018,2 hPa 0,0 l/m 7,5 km/h (2 Bft) W-NW 294 0 min 0,000 mm 0,0 UV-I 0 W/m 7,7 C 7,2 C 17,7 km/h (3 Bft)
22.05.2019 03:05 8,1 C 8,3 C 10,6 C 11,1 C 11,1 C 97 % 3 lf 83 cb 46 cb 46 cb 10 cb 1018,2 hPa 0,0 l/m 3,0 km/h (1 Bft) W-NW 287 0 min 0,000 mm 0,0 UV-I 0 W/m 7,7 C 8,1 C 9,7 km/h (2 Bft)
22.05.2019 03:03 8,1 C 8,3 C 10,6 C 11,1 C 11,1 C 97 % 3 lf 83 cb 46 cb 46 cb 10 cb 1018,2 hPa 0,0 l/m 1,8 km/h (1 Bft) W-NW 288 0 min 0,000 mm 0,0 UV-I 0 W/m 7,7 C 8,1 C 4,8 km/h (1 Bft)
22.05.2019 03:01 8,1 C 8,3 C 10,6 C 11,1 C 11,1 C 97 % 3 lf 83 cb 46 cb 46 cb 10 cb 1018,2 hPa 0,0 l/m 1,6 km/h (1 Bft) W-NW 289 0 min 0,000 mm 0,0 UV-I 0 W/m 7,7 C 8,1 C 4,8 km/h (1 Bft)
22.05.2019 02:59 8,1 C 8,3 C 10,6 C 11,1 C 11,1 C 97 % 3 lf 83 cb 46 cb 46 cb 10 cb 1018,2 hPa 0,0 l/m 4,8 km/h (1 Bft) W-NW 289 0 min 0,000 mm 0,0 UV-I 0 W/m 7,7 C 8,1 C 8,0 km/h (2 Bft)
22.05.2019 02:57 8,1 C 8,3 C 10,6 C 11,1 C 11,1 C 97 % 3 lf 83 cb 46 cb 46 cb 10 cb 1018,2 hPa 0,0 l/m 3,0 km/h (1 Bft) W-NW 291 0 min 0,000 mm 0,0 UV-I 0 W/m 7,7 C 8,1 C 6,4 km/h (2 Bft)
22.05.2019 02:55 8,1 C 8,3 C 10,6 C 11,1 C 11,1 C 97 % 3 lf 83 cb 46 cb 46 cb 10 cb 1018,2 hPa 0,0 l/m 4,6 km/h (1 Bft) W-NW 292 0 min 0,000 mm 0,0 UV-I 0 W/m 7,7 C 8,1 C 11,3 km/h (2 Bft)
22.05.2019 02:53 8,1 C 8,3 C 10,6 C 11,1 C 11,1 C 97 % 3 lf 83 cb 46 cb 46 cb 10 cb 1018,1 hPa 0,0 l/m 4,2 km/h (1 Bft) W 280 0 min 0,000 mm 0,0 UV-I 0 W/m 7,7 C 8,1 C 9,7 km/h (2 Bft)
22.05.2019 02:51 8,1 C 8,3 C 10,6 C 11,1 C 11,1 C 97 % 3 lf 83 cb 46 cb 46 cb 10 cb 1018,2 hPa 0,0 l/m 9,5 km/h (2 Bft) W-NW 282 0 min 0,000 mm 0,0 UV-I 0 W/m 7,7 C 5,8 C 16,1 km/h (3 Bft)
22.05.2019 02:49 8,1 C 8,3 C 10,6 C 11,1 C 11,1 C 97 % 3 lf 83 cb 46 cb 46 cb 10 cb 1018,1 hPa 0,0 l/m 6,8 km/h (2 Bft) W 277 0 min 0,000 mm 0,0 UV-I 0 W/m 7,7 C 7,8 C 14,5 km/h (3 Bft)
22.05.2019 02:47 8,2 C 8,3 C 10,6 C 11,1 C 11,1 C 97 % 3 lf 83 cb 46 cb 46 cb 10 cb 1018,1 hPa 0,0 l/m 7,4 km/h (2 Bft) NW 304 0 min 0,000 mm 0,0 UV-I 0 W/m 7,8 C 7,4 C 17,7 km/h (3 Bft)
22.05.2019 02:45 8,2 C 8,3 C 10,6 C 11,1 C 11,1 C 97 % 3 lf 83 cb 46 cb 46 cb 10 cb 1018,1 hPa 0,0 l/m 6,9 km/h (2 Bft) W-NW 289 0 min 0,000 mm 0,0 UV-I 0 W/m 7,8 C 7,8 C 11,3 km/h (2 Bft)
22.05.2019 02:43 8,2 C 8,3 C 10,6 C 11,1 C 11,1 C 97 % 3 lf 83 cb 46 cb 46 cb 10 cb 1018,1 hPa 0,0 l/m 12,4 km/h (3 Bft) W-NW 295 0 min 0,000 mm 0,0 UV-I 0 W/m 7,8 C 4,2 C 20,9 km/h (4 Bft)
22.05.2019 02:41 8,2 C 8,3 C 10,6 C 11,1 C 11,1 C 97 % 3 lf 83 cb 46 cb 46 cb 10 cb 1018,2 hPa 0,0 l/m 6,2 km/h (2 Bft) W-NW 292 0 min 0,000 mm 0,0 UV-I 0 W/m 7,8 C 8,2 C 9,7 km/h (2 Bft)
22.05.2019 02:39 8,2 C 8,3 C 10,6 C 11,1 C 11,1 C 97 % 3 lf 83 cb 46 cb 46 cb 10 cb 1018,1 hPa 0,0 l/m 9,7 km/h (2 Bft) W-NW 291 0 min 0,000 mm 0,0 UV-I 0 W/m 7,8 C 5,8 C 24,1 km/h (4 Bft)
22.05.2019 02:37 8,2 C 8,3 C 10,6 C 11,1 C 11,1 C 97 % 3 lf 83 cb 46 cb 46 cb 10 cb 1018,2 hPa 0,0 l/m 6,9 km/h (2 Bft) W 277 0 min 0,000 mm 0,0 UV-I 0 W/m 7,8 C 7,8 C 16,1 km/h (3 Bft)
22.05.2019 02:35 8,3 C 8,3 C 10,6 C 11,1 C 11,1 C 97 % 3 lf 82 cb 46 cb 46 cb 10 cb 1018,0 hPa 0,0 l/m 4,5 km/h (1 Bft) W-NW 286 0 min 0,000 mm 0,0 UV-I 0 W/m 7,9 C 8,3 C 9,7 km/h (2 Bft)
22.05.2019 02:33 8,3 C 8,3 C 10,6 C 11,1 C 11,1 C 97 % 3 lf 82 cb 46 cb 46 cb 10 cb 1018,0 hPa 0,0 l/m 6,0 km/h (2 Bft) W-NW 286 0 min 0,000 mm 0,0 UV-I 0 W/m 7,9 C 8,3 C 12,9 km/h (3 Bft)
22.05.2019 02:31 8,3 C 8,3 C 10,6 C 11,1 C 11,1 C 97 % 3 lf 83 cb 46 cb 46 cb 10 cb 1018,1 hPa 0,0 l/m 8,4 km/h (2 Bft) W-NW 286 0 min 0,000 mm 0,0 UV-I 0 W/m 7,9 C 6,8 C 16,1 km/h (3 Bft)
22.05.2019 02:29 8,3 C 8,3 C 10,6 C 11,1 C 11,1 C 97 % 3 lf 83 cb 46 cb 46 cb 10 cb 1018,1 hPa 0,0 l/m 4,9 km/h (1 Bft) W-NW 284 0 min 0,000 mm 0,0 UV-I 0 W/m 7,9 C 8,3 C 16,1 km/h (3 Bft)
22.05.2019 02:27 8,4 C 8,3 C 10,6 C 11,1 C 11,1 C 97 % 3 lf 82 cb 46 cb 46 cb 10 cb 1018,1 hPa 0,0 l/m 1,7 km/h (1 Bft) NW 305 0 min 0,000 mm 0,0 UV-I 0 W/m 8,0 C 8,4 C 11,3 km/h (2 Bft)
22.05.2019 02:25 8,4 C 8,3 C 10,6 C 11,1 C 11,1 C 97 % 3 lf 83 cb 46 cb 46 cb 10 cb 1018,1 hPa 0,0 l/m 5,5 km/h (1 Bft) NW 309 0 min 0,000 mm 0,0 UV-I 0 W/m 8,0 C 8,4 C 14,5 km/h (3 Bft)
22.05.2019 02:23 8,4 C 8,3 C 10,6 C 11,1 C 11,1 C 97 % 3 lf 83 cb 46 cb 46 cb 10 cb 1018,1 hPa 0,0 l/m 4,7 km/h (1 Bft) NW 313 0 min 0,000 mm 0,0 UV-I 0 W/m 8,0 C 8,4 C 11,3 km/h (2 Bft)
22.05.2019 02:21 8,4 C 8,3 C 10,6 C 11,1 C 11,1 C 97 % 3 lf 83 cb 46 cb 46 cb 10 cb 1018,0 hPa 0,0 l/m 9,1 km/h (2 Bft) NW 304 0 min 0,000 mm 0,0 UV-I 0 W/m 8,0 C 6,4 C 16,1 km/h (3 Bft)
22.05.2019 02:19 8,4 C 8,3 C 10,6 C 11,1 C 11,1 C 97 % 3 lf 82 cb 46 cb 46 cb 10 cb 1018,0 hPa 0,0 l/m 5,1 km/h (1 Bft) W-NW 292 0 min 0,000 mm 0,0 UV-I 0 W/m 8,0 C 8,4 C 9,7 km/h (2 Bft)
22.05.2019 02:17 8,5 C 8,3 C 10,6 C 11,1 C 11,1 C 97 % 3 lf 82 cb 46 cb 46 cb 10 cb 1018,0 hPa 0,0 l/m 9,5 km/h (2 Bft) W-NW 291 0 min 0,000 mm 0,0 UV-I 0 W/m 8,1 C 6,3 C 17,7 km/h (3 Bft)
22.05.2019 02:15 8,5 C 8,3 C 10,6 C 11,1 C 11,1 C 97 % 3 lf 83 cb 46 cb 46 cb 10 cb 1017,9 hPa 0,0 l/m 14,9 km/h (3 Bft) W-NW 290 0 min 0,000 mm 0,0 UV-I 0 W/m 8,1 C 3,4 C 22,5 km/h (4 Bft)
22.05.2019 02:13 8,5 C 8,3 C 10,6 C 11,1 C 11,1 C 97 % 3 lf 82 cb 46 cb 46 cb 10 cb 1017,9 hPa 0,0 l/m 7,7 km/h (2 Bft) W-NW 294 0 min 0,000 mm 0,0 UV-I 0 W/m 8,1 C 7,5 C 16,1 km/h (3 Bft)
22.05.2019 02:11 8,5 C 8,3 C 10,6 C 11,1 C 11,1 C 97 % 3 lf 81 cb 46 cb 46 cb 10 cb 1018,0 hPa 0,0 l/m 4,8 km/h (1 Bft) W-NW 294 0 min 0,000 mm 0,0 UV-I 0 W/m 8,1 C 8,5 C 12,9 km/h (3 Bft)
22.05.2019 02:09 8,6 C 8,3 C 10,6 C 11,1 C 11,1 C 97 % 3 lf 82 cb 46 cb 46 cb 10 cb 1017,9 hPa 0,0 l/m 9,2 km/h (2 Bft) W-NW 295 0 min 0,000 mm 0,0 UV-I 0 W/m 8,2 C 6,6 C 17,7 km/h (3 Bft)
22.05.2019 02:07 8,6 C 8,3 C 10,6 C 11,1 C 11,1 C 97 % 3 lf 81 cb 46 cb 46 cb 10 cb 1017,9 hPa 0,0 l/m 0,4 km/h (0 Bft) W-NW 302 0 min 0,000 mm 0,0 UV-I 0 W/m 8,2 C 8,6 C 3,2 km/h (1 Bft)
22.05.2019 02:05 8,6 C 8,9 C 10,6 C 11,1 C 11,1 C 97 % 3 lf 82 cb 46 cb 46 cb 10 cb 1017,9 hPa 0,0 l/m 4,8 km/h (1 Bft) W-NW 302 0 min 0,000 mm 0,0 UV-I 0 W/m 8,2 C 8,6 C 16,1 km/h (3 Bft)
22.05.2019 02:03 8,6 C 8,9 C 10,6 C 11,1 C 11,1 C 97 % 3 lf 82 cb 46 cb 46 cb 10 cb 1017,9 hPa 0,0 l/m 8,1 km/h (2 Bft) NW 304 0 min 0,000 mm 0,0 UV-I 0 W/m 8,2 C 7,3 C 17,7 km/h (3 Bft)
22.05.2019 02:01 8,6 C 8,9 C 10,6 C 11,1 C 11,1 C 97 % 3 lf 82 cb 46 cb 46 cb 10 cb 1018,0 hPa 0,0 l/m 5,5 km/h (1 Bft) NW 306 0 min 0,000 mm 0,0 UV-I 0 W/m 8,2 C 8,6 C 12,9 km/h (3 Bft)
22.05.2019 01:59 8,6 C 8,9 C 10,6 C 11,1 C 11,1 C 97 % 3 lf 82 cb 46 cb 46 cb 10 cb 1017,9 hPa 0,0 l/m 2,3 km/h (1 Bft) W-NW 298 0 min 0,000 mm 0,0 UV-I 0 W/m 8,2 C 8,6 C 6,4 km/h (2 Bft)
22.05.2019 01:57 8,6 C 8,9 C 10,6 C 11,1 C 11,1 C 97 % 3 lf 82 cb 46 cb 46 cb 10 cb 1017,9 hPa 0,0 l/m 7,8 km/h (2 Bft) W-NW 298 0 min 0,000 mm 0,0 UV-I 0 W/m 8,2 C 7,5 C 19,3 km/h (3 Bft)
22.05.2019 01:55 8,6 C 8,9 C 10,6 C 11,1 C 11,1 C 97 % 3 lf 82 cb 46 cb 46 cb 10 cb 1018,0 hPa 0,0 l/m 8,1 km/h (2 Bft) W 273 0 min 0,000 mm 0,0 UV-I 0 W/m 8,2 C 7,3 C 16,1 km/h (3 Bft)
22.05.2019 01:53 8,6 C 8,9 C 10,6 C 11,1 C 11,1 C 97 % 3 lf 82 cb 46 cb 46 cb 10 cb 1018,0 hPa 0,0 l/m 5,3 km/h (1 Bft) W-NW 291 0 min 0,000 mm 0,0 UV-I 0 W/m 8,2 C 8,6 C 11,3 km/h (2 Bft)
22.05.2019 01:51 8,7 C 8,9 C 10,6 C 11,1 C 11,1 C 97 % 3 lf 82 cb 46 cb 46 cb 10 cb 1018,0 hPa 0,0 l/m 5,1 km/h (1 Bft) W-NW 289 0 min 0,000 mm 0,0 UV-I 0 W/m 8,3 C 8,7 C 9,7 km/h (2 Bft)
22.05.2019 01:49 8,7 C 8,9 C 10,6 C 11,1 C 11,1 C 97 % 3 lf 82 cb 46 cb 46 cb 10 cb 1017,9 hPa 0,0 l/m 6,0 km/h (2 Bft) W-NW 292 0 min 0,000 mm 0,0 UV-I 0 W/m 8,3 C 8,7 C 11,3 km/h (2 Bft)
22.05.2019 01:47 8,7 C 8,9 C 10,6 C 11,1 C 11,1 C 97 % 3 lf 82 cb 46 cb 46 cb 10 cb 1017,9 hPa 0,0 l/m 7,5 km/h (2 Bft) W 275 0 min 0,000 mm 0,0 UV-I 0 W/m 8,3 C 7,9 C 14,5 km/h (3 Bft)
22.05.2019 01:45 8,7 C 8,9 C 10,6 C 11,1 C 11,1 C 97 % 3 lf 82 cb 46 cb 46 cb 10 cb 1017,9 hPa 0,0 l/m 1,3 km/h (1 Bft) W 280 0 min 0,000 mm 0,0 UV-I 0 W/m 8,3 C 8,7 C 8,0 km/h (2 Bft)
22.05.2019 01:43 8,7 C 8,9 C 10,6 C 11,1 C 11,1 C 97 % 3 lf 82 cb 46 cb 46 cb 10 cb 1018,0 hPa 0,0 l/m 6,3 km/h (2 Bft) W 279 0 min 0,000 mm 0,0 UV-I 0 W/m 8,3 C 8,7 C 11,3 km/h (2 Bft)
22.05.2019 01:41 8,7 C 8,9 C 10,6 C 11,1 C 11,1 C 97 % 3 lf 82 cb 46 cb 46 cb 10 cb 1018,0 hPa 0,0 l/m 4,3 km/h (1 Bft) W-NW 284 0 min 0,000 mm 0,0 UV-I 0 W/m 8,3 C 8,7 C 9,7 km/h (2 Bft)
22.05.2019 01:39 8,7 C 8,9 C 10,6 C 11,1 C 11,1 C 97 % 3 lf 82 cb 46 cb 46 cb 10 cb 1018,0 hPa 0,0 l/m 2,8 km/h (1 Bft) W-NW 288 0 min 0,000 mm 0,0 UV-I 0 W/m 8,3 C 8,7 C 9,7 km/h (2 Bft)
22.05.2019 01:37 8,8 C 8,9 C 10,6 C 11,1 C 11,1 C 97 % 3 lf 82 cb 46 cb 46 cb 10 cb 1018,0 hPa 0,0 l/m 3,8 km/h (1 Bft) W-NW 294 0 min 0,000 mm 0,0 UV-I 0 W/m 8,4 C 8,8 C 14,5 km/h (3 Bft)
22.05.2019 01:35 8,8 C 8,9 C 10,6 C 11,1 C 11,1 C 97 % 3 lf 82 cb 46 cb 46 cb 10 cb 1018,1 hPa 0,0 l/m 4,4 km/h (1 Bft) W 281 0 min 0,000 mm 0,0 UV-I 0 W/m 8,4 C 8,8 C 8,0 km/h (2 Bft)
22.05.2019 01:33 8,8 C 8,9 C 10,6 C 11,1 C 11,1 C 97 % 3 lf 82 cb 46 cb 46 cb 10 cb 1018,0 hPa 0,0 l/m 5,8 km/h (2 Bft) W-NW 287 0 min 0,000 mm 0,0 UV-I 0 W/m 8,4 C 8,8 C 14,5 km/h (3 Bft)
22.05.2019 01:31 8,8 C 8,9 C 10,6 C 11,1 C 11,1 C 97 % 3 lf 82 cb 46 cb 46 cb 10 cb 1018,0 hPa 0,0 l/m 6,8 km/h (2 Bft) W-NW 295 0 min 0,000 mm 0,0 UV-I 0 W/m 8,4 C 8,5 C 20,9 km/h (4 Bft)
22.05.2019 01:29 8,8 C 8,9 C 10,6 C 11,1 C 11,1 C 97 % 3 lf 82 cb 46 cb 46 cb 10 cb 1018,0 hPa 0,0 l/m 3,0 km/h (1 Bft) W 279 0 min 0,000 mm 0,0 UV-I 0 W/m 8,4 C 8,8 C 8,0 km/h (2 Bft)
22.05.2019 01:27 8,8 C 8,9 C 10,6 C 11,1 C 11,1 C 97 % 3 lf 82 cb 46 cb 46 cb 10 cb 1018,0 hPa 0,0 l/m 2,7 km/h (1 Bft) W 279 0 min 0,000 mm 0,0 UV-I 0 W/m 8,4 C 8,8 C 8,0 km/h (2 Bft)
22.05.2019 01:25 8,8 C 8,9 C 10,6 C 11,1 C 11,1 C 97 % 3 lf 82 cb 46 cb 46 cb 10 cb 1018,0 hPa 0,0 l/m 4,9 km/h (1 Bft) W 281 0 min 0,000 mm 0,0 UV-I 0 W/m 8,4 C 8,8 C 11,3 km/h (2 Bft)
22.05.2019 01:23 8,8 C 8,9 C 10,6 C 11,1 C 11,1 C 97 % 3 lf 82 cb 46 cb 46 cb 10 cb 1018,0 hPa 0,0 l/m 3,7 km/h (1 Bft) W-NW 284 0 min 0,000 mm 0,0 UV-I 0 W/m 8,4 C 8,8 C 9,7 km/h (2 Bft)
22.05.2019 01:21 8,9 C 8,9 C 10,6 C 11,1 C 11,1 C 97 % 3 lf 82 cb 46 cb 46 cb 10 cb 1018,0 hPa 0,0 l/m 2,7 km/h (1 Bft) W-NW 284 0 min 0,000 mm 0,0 UV-I 0 W/m 8,4 C 8,9 C 6,4 km/h (2 Bft)
22.05.2019 01:19 8,9 C 8,9 C 10,6 C 11,1 C 11,1 C 97 % 3 lf 82 cb 46 cb 46 cb 10 cb 1018,0 hPa 0,0 l/m 6,0 km/h (2 Bft) W-NW 284 0 min 0,000 mm 0,0 UV-I 0 W/m 8,4 C 8,9 C 16,1 km/h (3 Bft)
22.05.2019 01:17 8,9 C 8,9 C 10,6 C 11,1 C 11,1 C 97 % 3 lf 82 cb 46 cb 46 cb 10 cb 1018,0 hPa 0,0 l/m 4,5 km/h (1 Bft) W-NW 288 0 min 0,000 mm 0,0 UV-I 0 W/m 8,4 C 8,9 C 11,3 km/h (2 Bft)
22.05.2019 01:15 8,9 C 8,9 C 10,6 C 11,1 C 11,1 C 97 % 3 lf 82 cb 46 cb 46 cb 10 cb 1018,0 hPa 0,0 l/m 5,2 km/h (1 Bft) W-NW 293 0 min 0,000 mm 0,0 UV-I 0 W/m 8,4 C 8,9 C 14,5 km/h (3 Bft)
22.05.2019 01:14 8,9 C 8,9 C 10,6 C 11,1 C 11,1 C 97 % 3 lf 82 cb 46 cb 46 cb 10 cb 1018,0 hPa 0,2 l/m 6,9 km/h (2 Bft) W 280 0 min 0,000 mm 0,0 UV-I 0 W/m 8,4 C 8,5 C 11,3 km/h (2 Bft)
22.05.2019 01:12 8,9 C 8,9 C 10,6 C 11,1 C 11,1 C 97 % 3 lf 82 cb 46 cb 46 cb 10 cb 1017,9 hPa 0,0 l/m 3,9 km/h (1 Bft) W 276 0 min 0,000 mm 0,0 UV-I 0 W/m 8,4 C 8,9 C 8,0 km/h (2 Bft)
22.05.2019 01:10 8,9 C 8,9 C 10,6 C 11,1 C 11,1 C 97 % 3 lf 82 cb 46 cb 46 cb 10 cb 1018,0 hPa 0,0 l/m 0,0 km/h (0 Bft) W 277 0 min 0,000 mm 0,0 UV-I 0 W/m 8,4 C 8,9 C 0,0 km/h (0 Bft)
22.05.2019 01:09 8,9 C 8,9 C 10,6 C 11,1 C 11,1 C 97 % 3 lf 82 cb 46 cb 46 cb 10 cb 1018,0 hPa 0,0 l/m 0,4 km/h (0 Bft) W 277 0 min 0,000 mm 0,0 UV-I 0 W/m 8,4 C 8,9 C 1,6 km/h (1 Bft)
22.05.2019 01:08 8,9 C 8,9 C 10,6 C 11,1 C 11,1 C 97 % 4 lf 82 cb 46 cb 46 cb 10 cb 1018,0 hPa 0,0 l/m 1,3 km/h (1 Bft) W 277 0 min 0,000 mm 0,0 UV-I 0 W/m 8,4 C 8,9 C 3,2 km/h (1 Bft)
22.05.2019 01:07 8,9 C 8,9 C 10,6 C 11,1 C 11,1 C 97 % 4 lf 82 cb 46 cb 46 cb 10 cb 1018,0 hPa 0,0 l/m 1,3 km/h (1 Bft) W 277 0 min 0,000 mm 0,0 UV-I 0 W/m 8,4 C 8,9 C 4,8 km/h (1 Bft)
22.05.2019 01:05 8,9 C 8,9 C 10,6 C 11,1 C 11,1 C 97 % 3 lf 82 cb 46 cb 46 cb 10 cb 1018,0 hPa 0,0 l/m 6,6 km/h (2 Bft) W 277 0 min 0,000 mm 0,0 UV-I 0 W/m 8,4 C 8,8 C 8,0 km/h (2 Bft)
22.05.2019 01:04 9,0 C 8,9 C 10,6 C 11,1 C 11,1 C 97 % 4 lf 82 cb 46 cb 46 cb 10 cb 1018,0 hPa 0,0 l/m 3,3 km/h (1 Bft) W 277 0 min 0,000 mm 0,0 UV-I 0 W/m 8,5 C 9,0 C 6,4 km/h (2 Bft)
22.05.2019 01:02 9,0 C 8,9 C 10,6 C 11,1 C 11,1 C 97 % 4 lf 82 cb 46 cb 46 cb 10 cb 1018,0 hPa 0,0 l/m 1,8 km/h (1 Bft) W 277 0 min 0,000 mm 0,0 UV-I 0 W/m 8,5 C 9,0 C 8,0 km/h (2 Bft)
22.05.2019 01:00 9,0 C 8,9 C 10,6 C 11,1 C 11,1 C 97 % 4 lf 82 cb 46 cb 46 cb 10 cb 1018,0 hPa 0,0 l/m 0,7 km/h (0 Bft) W 278 0 min 0,000 mm 0,0 UV-I 0 W/m 8,5 C 9,0 C 6,4 km/h (2 Bft)
22.05.2019 00:58 9,0 C 8,9 C 10,6 C 11,1 C 11,1 C 97 % 4 lf 82 cb 46 cb 46 cb 10 cb 1018,0 hPa 0,0 l/m 3,9 km/h (1 Bft) W 278 0 min 0,000 mm 0,0 UV-I 0 W/m 8,5 C 9,0 C 9,7 km/h (2 Bft)
22.05.2019 00:56 9,0 C 8,9 C 10,6 C 11,1 C 11,1 C 100 % 4 lf 82 cb 46 cb 46 cb 10 cb 1018,0 hPa 0,0 l/m 0,0 km/h (0 Bft) W 274 0 min 0,000 mm 0,0 UV-I 0 W/m 9,0 C 9,0 C 0,0 km/h (0 Bft)
22.05.2019 00:54 9,0 C 8,9 C 10,6 C 11,1 C 11,1 C 97 % 4 lf 82 cb 46 cb 46 cb 10 cb 1018,0 hPa 0,0 l/m 0,0 km/h (0 Bft) W 274 0 min 0,000 mm 0,0 UV-I 0 W/m 8,5 C 9,0 C 0,0 km/h (0 Bft)
22.05.2019 00:52 9,0 C 8,9 C 10,6 C 11,1 C 11,1 C 97 % 4 lf 82 cb 46 cb 46 cb 10 cb 1018,0 hPa 0,0 l/m 2,3 km/h (1 Bft) W 274 0 min 0,000 mm 0,0 UV-I 0 W/m 8,5 C 9,0 C 6,4 km/h (2 Bft)
22.05.2019 00:50 9,0 C 8,9 C 10,6 C 11,1 C 11,1 C 97 % 4 lf 82 cb 46 cb 46 cb 10 cb 1018,0 hPa 0,0 l/m 2,1 km/h (1 Bft) W 273 0 min 0,000 mm 0,0 UV-I 0 W/m 8,5 C 9,0 C 6,4 km/h (2 Bft)
22.05.2019 00:48 9,1 C 8,9 C 10,6 C 11,1 C 11,1 C 97 % 4 lf 82 cb 46 cb 46 cb 10 cb 1018,0 hPa 0,0 l/m 0,9 km/h (0 Bft) W 272 0 min 0,000 mm 0,0 UV-I 0 W/m 8,6 C 9,1 C 6,4 km/h (2 Bft)
22.05.2019 00:46 9,1 C 8,9 C 10,6 C 11,1 C 11,1 C 97 % 4 lf 82 cb 46 cb 46 cb 10 cb 1018,0 hPa 0,0 l/m 4,4 km/h (1 Bft) W 272 0 min 0,000 mm 0,0 UV-I 0 W/m 8,6 C 9,1 C 8,0 km/h (2 Bft)
22.05.2019 00:45 9,1 C 8,9 C 10,6 C 11,1 C 11,1 C 97 % 4 lf 82 cb 46 cb 46 cb 10 cb 1018,0 hPa 0,0 l/m 5,6 km/h (1 Bft) W 267 0 min 0,000 mm 0,0 UV-I 0 W/m 8,6 C 9,1 C 9,7 km/h (2 Bft)
22.05.2019 00:44 9,1 C 8,9 C 10,6 C 11,1 C 11,1 C 97 % 4 lf 82 cb 46 cb 46 cb 10 cb 1018,0 hPa 0,0 l/m 2,5 km/h (1 Bft) W 274 0 min 0,000 mm 0,0 UV-I 0 W/m 8,6 C 9,1 C 9,7 km/h (2 Bft)
22.05.2019 00:42 9,1 C 8,9 C 10,6 C 11,1 C 11,1 C 97 % 4 lf 82 cb 46 cb 46 cb 10 cb 1018,0 hPa 0,0 l/m 0,7 km/h (0 Bft) W-NW 286 0 min 0,000 mm 0,0 UV-I 0 W/m 8,6 C 9,1 C 3,2 km/h (1 Bft)
22.05.2019 00:40 9,1 C 8,9 C 10,6 C 11,7 C 11,1 C 97 % 4 lf 82 cb 46 cb 47 cb 10 cb 1018,0 hPa 0,0 l/m 2,4 km/h (1 Bft) W-NW 286 0 min 0,000 mm 0,0 UV-I 0 W/m 8,6 C 9,1 C 8,0 km/h (2 Bft)
22.05.2019 00:38 9,1 C 8,9 C 10,6 C 11,7 C 11,1 C 97 % 4 lf 82 cb 46 cb 47 cb 10 cb 1018,0 hPa 0,0 l/m 2,0 km/h (1 Bft) W 281 0 min 0,000 mm 0,0 UV-I 0 W/m 8,6 C 9,1 C 9,7 km/h (2 Bft)
22.05.2019 00:36 9,1 C 8,9 C 10,6 C 11,7 C 11,1 C 97 % 4 lf 82 cb 46 cb 47 cb 10 cb 1018,0 hPa 0,0 l/m 4,1 km/h (1 Bft) W 267 0 min 0,000 mm 0,0 UV-I 0 W/m 8,6 C 9,1 C 14,5 km/h (3 Bft)
22.05.2019 00:34 9,1 C 8,9 C 10,6 C 11,7 C 11,1 C 97 % 4 lf 82 cb 46 cb 47 cb 10 cb 1018,0 hPa 0,0 l/m 3,5 km/h (1 Bft) W-NW 298 0 min 0,000 mm 0,0 UV-I 0 W/m 8,6 C 9,1 C 6,4 km/h (2 Bft)
22.05.2019 00:33 9,1 C 8,9 C 10,6 C 11,7 C 11,1 C 97 % 4 lf 82 cb 46 cb 47 cb 10 cb 1018,0 hPa 0,0 l/m 6,2 km/h (2 Bft) W-NW 298 0 min 0,000 mm 0,0 UV-I 0 W/m 8,6 C 9,1 C 9,7 km/h (2 Bft)
22.05.2019 00:32 9,1 C 8,9 C 10,6 C 11,7 C 11,1 C 97 % 4 lf 82 cb 46 cb 47 cb 10 cb 1018,0 hPa 0,0 l/m 5,6 km/h (1 Bft) W-NW 299 0 min 0,000 mm 0,0 UV-I 0 W/m 8,6 C 9,1 C 9,7 km/h (2 Bft)
22.05.2019 00:31 9,1 C 8,9 C 10,6 C 11,7 C 11,1 C 97 % 4 lf 82 cb 46 cb 47 cb 10 cb 1017,9 hPa 0,0 l/m 7,1 km/h (2 Bft) W-NW 299 0 min 0,000 mm 0,0 UV-I 0 W/m 8,6 C 8,6 C 14,5 km/h (3 Bft)
22.05.2019 00:29 9,1 C 8,9 C 10,6 C 11,7 C 11,1 C 97 % 4 lf 82 cb 46 cb 47 cb 10 cb 1017,9 hPa 0,0 l/m 2,5 km/h (1 Bft) W-NW 291 0 min 0,000 mm 0,0 UV-I 0 W/m 8,6 C 9,1 C 8,0 km/h (2 Bft)
22.05.2019 00:27 9,1 C 8,9 C 10,6 C 11,7 C 11,1 C 97 % 4 lf 83 cb 46 cb 47 cb 10 cb 1017,9 hPa 0,0 l/m 0,4 km/h (0 Bft) W-NW 293 0 min 0,000 mm 0,0 UV-I 0 W/m 8,6 C 9,1 C 3,2 km/h (1 Bft)
22.05.2019 00:25 9,2 C 8,9 C 10,6 C 11,7 C 11,1 C 97 % 4 lf 83 cb 46 cb 47 cb 10 cb 1017,9 hPa 0,0 l/m 3,5 km/h (1 Bft) W-NW 293 0 min 0,000 mm 0,0 UV-I 0 W/m 8,7 C 9,2 C 9,7 km/h (2 Bft)
22.05.2019 00:23 9,2 C 8,9 C 10,6 C 11,7 C 11,1 C 97 % 4 lf 82 cb 46 cb 47 cb 10 cb 1018,0 hPa 0,0 l/m 3,0 km/h (1 Bft) W-NW 298 0 min 0,000 mm 0,0 UV-I 0 W/m 8,7 C 9,2 C 8,0 km/h (2 Bft)
22.05.2019 00:21 9,2 C 8,9 C 10,6 C 11,7 C 11,1 C 97 % 5 lf 82 cb 46 cb 47 cb 10 cb 1018,0 hPa 0,0 l/m 1,7 km/h (1 Bft) W-NW 298 0 min 0,000 mm 0,0 UV-I 0 W/m 8,7 C 9,2 C 8,0 km/h (2 Bft)
22.05.2019 00:19 9,2 C 8,9 C 10,6 C 11,7 C 11,1 C 97 % 5 lf 82 cb 46 cb 47 cb 10 cb 1018,0 hPa 0,0 l/m 2,4 km/h (1 Bft) W-NW 298 0 min 0,000 mm 0,0 UV-I 0 W/m 8,7 C 9,2 C 8,0 km/h (2 Bft)
22.05.2019 00:17 9,2 C 8,9 C 10,6 C 11,7 C 11,1 C 97 % 5 lf 82 cb 46 cb 47 cb 10 cb 1018,0 hPa 0,0 l/m 2,7 km/h (1 Bft) W-NW 294 0 min 0,000 mm 0,0 UV-I 0 W/m 8,7 C 9,2 C 14,5 km/h (3 Bft)
22.05.2019 00:15 9,2 C 8,9 C 10,6 C 11,7 C 11,1 C 97 % 5 lf 82 cb 45 cb 47 cb 10 cb 1017,9 hPa 0,0 l/m 1,4 km/h (1 Bft) W 274 0 min 0,000 mm 0,0 UV-I 0 W/m 8,7 C 9,2 C 6,4 km/h (2 Bft)
22.05.2019 00:13 9,2 C 8,9 C 10,6 C 11,7 C 11,1 C 97 % 5 lf 82 cb 45 cb 47 cb 10 cb 1017,9 hPa 0,0 l/m 3,2 km/h (1 Bft) W 274 0 min 0,000 mm 0,0 UV-I 0 W/m 8,7 C 9,2 C 16,1 km/h (3 Bft)
22.05.2019 00:11 9,2 C 8,9 C 11,1 C 11,7 C 11,1 C 97 % 6 lf 82 cb 46 cb 47 cb 10 cb 1018,0 hPa 0,0 l/m 2,4 km/h (1 Bft) W-NW 294 0 min 0,000 mm 0,0 UV-I 0 W/m 8,7 C 9,2 C 9,7 km/h (2 Bft)
22.05.2019 00:09 9,2 C 8,9 C 11,1 C 11,7 C 11,1 C 97 % 6 lf 82 cb 46 cb 47 cb 10 cb 1017,9 hPa 0,0 l/m 3,6 km/h (1 Bft) W-NW 294 0 min 0,000 mm 0,0 UV-I 0 W/m 8,7 C 9,2 C 9,7 km/h (2 Bft)
22.05.2019 00:07 9,3 C 8,9 C 11,1 C 11,7 C 11,1 C 97 % 6 lf 82 cb 46 cb 47 cb 10 cb 1017,9 hPa 0,0 l/m 1,1 km/h (1 Bft) W-NW 295 0 min 0,000 mm 0,0 UV-I 0 W/m 8,8 C 9,3 C 6,4 km/h (2 Bft)
22.05.2019 00:05 9,3 C 8,9 C 11,1 C 11,7 C 11,1 C 97 % 7 lf 82 cb 46 cb 47 cb 10 cb 1017,9 hPa 0,0 l/m 5,6 km/h (1 Bft) W-NW 295 0 min 0,000 mm 0,0 UV-I 0 W/m 8,8 C 9,3 C 9,7 km/h (2 Bft)
22.05.2019 00:03 9,3 C 8,9 C 11,1 C 11,7 C 11,1 C 97 % 7 lf 82 cb 46 cb 47 cb 10 cb 1017,9 hPa 0,0 l/m 5,5 km/h (1 Bft) W-NW 296 0 min 0,000 mm 0,0 UV-I 0 W/m 8,8 C 9,3 C 19,3 km/h (3 Bft)
22.05.2019 00:01 9,3 C 8,9 C 11,1 C 11,7 C 11,1 C 97 % 7 lf 82 cb 46 cb 47 cb 10 cb 1018,0 hPa 0,0 l/m 5,0 km/h (1 Bft) NW 306 0 min 0,000 mm 0,0 UV-I 0 W/m 8,8 C 9,3 C 12,9 km/h (3 Bft)
_ Min-Zeit 07:01 05:35 05:35 05:33 07:03 15:23 07:07 02:07 00:13 16:38 00:01 00:03 - 00:54 - - - - - - 07:01 06:31 00:54
Minimum _ 6,6 C 6,7 C 9,4 C 10,6 C 10,6 C 60 % 0 lf 81 cb 45 cb 43 cb 10 cb 1017,9 hPa - 0,0 km/h (0 Bft) - - - - - - 6,2 C 2,2 C 0,0 km/h (0 Bft)
_ Max-Zeit 15:58 14:43 14:43 15:05 15:50 00:56 00:01 12:52 12:38 00:01 00:01 12:08 01:14 02:15 - - 13:09 14:01 13:13 14:05 13:35 15:58 05:09
Maximum _ 16,4 C 31,7 C 21,7 C 16,7 C 13,3 C 100 % 7 lf 104 cb 50 cb 47 cb 10 cb 1020,8 hPa 0,2 l/m 14,9 km/h
W-NW (3 Bft)
- - 3 min 0,407 mm 6,2 UV-I 983 W/m 10,3 C 16,4 C 25,7 km/h
W-NW (4 Bft)
Durchschnitt _ 10,1 C 13,9 C 13,1 C 12,2 C 11,3 C 88 % 1 lf 86 cb 47 cb 46 cb 10 cb 1019,4 hPa #1,8 l/m 5,8 km/h (2 Bft) W-NW - #4:15 h #2,184 mm 3,3 UV-I 411 W/m 7,9 C 9,4 C 13,0 km/h (3 Bft)